| time (UTC) | temp F | wind direction | speed MPH | gust MPH | rain 1hr in | rain 24hr in | rain mn in | humidity % | barometer mb |
| 20260902044205 | 84 | 110 | 5.0 | 10.0 | 0.00 | 0.00 | 0.00 | 63 | 1014.6 |
| 20260902044103 | 84 | 110 | 6.0 | 10.0 | 0.00 | 0.00 | 0.00 | 63 | 1014.6 |
| 20260902044004 | 84 | 109 | 6.0 | 12.0 | 0.00 | 0.00 | 0.00 | 63 | 1014.6 |
| 20260902043804 | 84 | 107 | 5.0 | 12.0 | 0.00 | 0.00 | 0.00 | 62 | 1014.6 |
| 20260902043703 | 84 | 108 | 5.0 | 12.0 | 0.00 | 0.00 | 0.00 | 62 | 1014.6 |
| 20260902043604 | 84 | 107 | 5.0 | 12.0 | 0.00 | 0.00 | 0.00 | 62 | 1014.5 |
| 20260902043503 | 84 | 107 | 6.0 | 12.0 | 0.00 | 0.00 | 0.00 | 62 | 1014.5 |
| 20260902043404 | 84 | 108 | 6.0 | 12.0 | 0.00 | 0.00 | 0.00 | 61 | 1014.5 |
| 20260902043204 | 84 | 105 | 6.0 | 12.0 | 0.00 | 0.00 | 0.00 | 61 | 1014.5 |
| 20260902043004 | 84 | 104 | 6.0 | 12.0 | 0.00 | 0.00 | 0.00 | 61 | 1014.5 |
| 20260902042904 | 84 | 103 | 6.0 | 12.0 | 0.00 | 0.00 | 0.00 | 61 | 1014.5 |
| 20260902042804 | 84 | 104 | 7.0 | 12.0 | 0.00 | 0.00 | 0.00 | 61 | 1014.5 |
| 20260902042503 | 85 | 104 | 6.0 | 12.0 | 0.00 | 0.00 | 0.00 | 60 | 1014.5 |
| 20260902042404 | 85 | 104 | 6.0 | 12.0 | 0.00 | 0.00 | 0.00 | 60 | 1014.4 |
| 20260902042308 | 85 | 105 | 6.0 | 12.0 | 0.00 | 0.00 | 0.00 | 60 | 1014.4 |
| 20260902042204 | 85 | 104 | 6.0 | 12.0 | 0.00 | 0.00 | 0.00 | 60 | 1014.4 |
| 20260902042104 | 85 | 104 | 6.0 | 12.0 | 0.00 | 0.00 | 0.00 | 60 | 1014.4 |
| 20260902042004 | 85 | 102 | 6.0 | 13.0 | 0.00 | 0.00 | 0.00 | 60 | 1014.4 |
| 20260902041903 | 85 | 101 | 6.0 | 13.0 | 0.00 | 0.00 | 0.00 | 59 | 1014.4 |
| 20260902041804 | 85 | 102 | 6.0 | 13.0 | 0.00 | 0.00 | 0.00 | 59 | 1014.4 |
| 20260902041703 | 85 | 102 | 6.0 | 13.0 | 0.00 | 0.00 | 0.00 | 59 | 1014.4 |
| 20260902041604 | 85 | 103 | 6.0 | 13.0 | 0.00 | 0.00 | 0.00 | 59 | 1014.4 |
| 20260902041504 | 85 | 102 | 6.0 | 13.0 | 0.00 | 0.00 | 0.00 | 59 | 1014.4 |
| 20260902041303 | 85 | 102 | 5.0 | 13.0 | 0.00 | 0.00 | 0.00 | 59 | 1014.3 |
| 20260902041203 | 85 | 102 | 5.0 | 13.0 | 0.00 | 0.00 | 0.00 | 59 | 1014.3 |
| 20260902041104 | 85 | 104 | 5.0 | 13.0 | 0.00 | 0.00 | 0.00 | 59 | 1014.3 |
| 20260902041005 | 86 | 105 | 5.0 | 11.0 | 0.00 | 0.00 | 0.00 | 58 | 1014.3 |
| 20260902040904 | 86 | 106 | 5.0 | 11.0 | 0.00 | 0.00 | 0.00 | 58 | 1014.4 |
| 20260902040804 | 86 | 106 | 5.0 | 11.0 | 0.00 | 0.00 | 0.00 | 58 | 1014.4 |
| 20260902040704 | 86 | 106 | 5.0 | 11.0 | 0.00 | 0.00 | 0.00 | 58 | 1014.4 |
| 20260902040604 | 86 | 106 | 4.0 | 11.0 | 0.00 | 0.00 | 0.00 | 58 | 1014.4 |
| 20260902040504 | 86 | 106 | 4.0 | 10.0 | 0.00 | 0.00 | 0.00 | 58 | 1014.4 |
| 20260902040404 | 86 | 106 | 4.0 | 10.0 | 0.00 | 0.00 | 0.00 | 58 | 1014.4 |
| 20260902040304 | 86 | 107 | 4.0 | 10.0 | 0.00 | 0.00 | 0.00 | 58 | 1014.4 |
| 20260902040104 | 86 | 106 | 4.0 | 10.0 | 0.00 | 0.00 | 0.00 | 58 | 1014.4 |
| 20260902035904 | 86 | 106 | 4.0 | 10.0 | 0.00 | 0.00 | 0.00 | 57 | 1014.3 |
| 20260902035703 | 86 | 105 | 4.0 | 10.0 | 0.00 | 0.00 | 0.00 | 57 | 1014.4 |
| 20260902035604 | 86 | 104 | 4.0 | 10.0 | 0.00 | 0.00 | 0.00 | 57 | 1014.3 |
| 20260902035504 | 86 | 103 | 4.0 | 10.0 | 0.00 | 0.00 | 0.00 | 57 | 1014.3 |
| 20260902035404 | 86 | 103 | 4.0 | 10.0 | 0.00 | 0.00 | 0.00 | 57 | 1014.3 |
| 20260902035103 | 86 | 104 | 3.0 | 7.0 | 0.00 | 0.00 | 0.00 | 56 | 1014.3 |
| 20260902035004 | 86 | 105 | 3.0 | 7.0 | 0.00 | 0.00 | 0.00 | 56 | 1014.2 |
| 20260902034803 | 86 | 108 | 3.0 | 7.0 | 0.00 | 0.00 | 0.00 | 56 | 1014.2 |
| 20260902034606 | 86 | 116 | 2.0 | 7.0 | 0.00 | 0.00 | 0.00 | 56 | 1014.2 |
| 20260902034504 | 86 | 119 | 2.0 | 7.0 | 0.00 | 0.00 | 0.00 | 56 | 1014.1 |
| 20260902034303 | 86 | 126 | 2.0 | 4.0 | 0.00 | 0.00 | 0.00 | 56 | 1014.0 |
| 20260902034203 | 86 | 127 | 2.0 | 4.0 | 0.00 | 0.00 | 0.00 | 56 | 1014.0 |
| 20260902034104 | 86 | 129 | 2.0 | 4.0 | 0.00 | 0.00 | 0.00 | 56 | 1014.0 |
| 20260902034003 | 86 | 130 | 2.0 | 4.0 | 0.00 | 0.00 | 0.00 | 56 | 1014.0 |
| 20260902033803 | 86 | 129 | 2.0 | 4.0 | 0.00 | 0.00 | 0.00 | 56 | 1013.9 |
| 20260902033604 | 86 | 126 | 3.0 | 4.0 | 0.00 | 0.00 | 0.00 | 56 | 1013.9 |
| 20260902033504 | 86 | 125 | 3.0 | 7.0 | 0.00 | 0.00 | 0.00 | 56 | 1014.0 |
| 20260902033403 | 86 | 124 | 3.0 | 7.0 | 0.00 | 0.00 | 0.00 | 56 | 1013.9 |
| 20260902033305 | 86 | 123 | 3.0 | 7.0 | 0.00 | 0.00 | 0.00 | 56 | 1013.9 |
| 20260902033203 | 86 | 122 | 3.0 | 7.0 | 0.00 | 0.00 | 0.00 | 56 | 1013.9 |
| 20260902033104 | 86 | 121 | 3.0 | 7.0 | 0.00 | 0.00 | 0.00 | 56 | 1013.9 |
| 20260902033005 | 86 | 119 | 3.0 | 7.0 | 0.00 | 0.00 | 0.00 | 56 | 1013.9 |
| 20260902032904 | 86 | 118 | 3.0 | 7.0 | 0.00 | 0.00 | 0.00 | 56 | 1013.9 |
| 20260902032803 | 86 | 117 | 3.0 | 7.0 | 0.00 | 0.00 | 0.00 | 56 | 1013.9 |
| 20260902032704 | 86 | 116 | 3.0 | 7.0 | 0.00 | 0.00 | 0.00 | 56 | 1013.9 |
| 20260902032603 | 86 | 115 | 2.0 | 7.0 | 0.00 | 0.00 | 0.00 | 56 | 1013.9 |
| 20260902032403 | 87 | 113 | 2.0 | 5.0 | 0.00 | 0.00 | 0.00 | 56 | 1013.9 |
| 20260902032306 | 87 | 113 | 3.0 | 5.0 | 0.00 | 0.00 | 0.00 | 56 | 1013.9 |
| 20260902032203 | 87 | 112 | 3.0 | 5.0 | 0.00 | 0.00 | 0.00 | 56 | 1013.8 |
| 20260902032104 | 87 | 111 | 3.0 | 5.0 | 0.00 | 0.00 | 0.00 | 55 | 1013.9 |
| 20260902032004 | 87 | 110 | 3.0 | 5.0 | 0.00 | 0.00 | 0.00 | 55 | 1013.8 |
| 20260902031904 | 87 | 108 | 2.0 | 5.0 | 0.00 | 0.00 | 0.00 | 55 | 1013.9 |
| 20260902031804 | 87 | 107 | 2.0 | 5.0 | 0.00 | 0.00 | 0.00 | 55 | 1013.8 |
| 20260902031703 | 87 | 106 | 2.0 | 5.0 | 0.00 | 0.00 | 0.00 | 55 | 1013.8 |
| 20260902031604 | 87 | 107 | 2.0 | 5.0 | 0.00 | 0.00 | 0.00 | 55 | 1013.8 |
| 20260902031503 | 87 | 107 | 3.0 | 5.0 | 0.00 | 0.00 | 0.00 | 55 | 1013.8 |
| 20260902031404 | 87 | 106 | 3.0 | 5.0 | 0.00 | 0.00 | 0.00 | 55 | 1013.8 |
| 20260902031104 | 87 | 106 | 2.0 | 5.0 | 0.00 | 0.00 | 0.00 | 55 | 1013.7 |
| 20260902031004 | 87 | 105 | 2.0 | 5.0 | 0.00 | 0.00 | 0.00 | 55 | 1013.7 |
| 20260902030803 | 87 | 106 | 2.0 | 4.0 | 0.00 | 0.00 | 0.00 | 55 | 1013.6 |
| 20260902030605 | 87 | 105 | 2.0 | 4.0 | 0.00 | 0.00 | 0.00 | 55 | 1013.6 |
| 20260902030405 | 87 | 103 | 2.0 | 4.0 | 0.00 | 0.00 | 0.00 | 55 | 1013.6 |
| 20260902030305 | 87 | 103 | 2.0 | 4.0 | 0.00 | 0.00 | 0.00 | 55 | 1013.6 |
| 20260902030205 | 87 | 102 | 2.0 | 4.0 | 0.00 | 0.00 | 0.00 | 54 | 1013.5 |
| 20260902030105 | 87 | 101 | 2.0 | 4.0 | 0.00 | 0.00 | 0.00 | 54 | 1013.5 |
| 20260902030005 | 87 | 101 | 2.0 | 4.0 | 0.00 | 0.00 | 0.00 | 54 | 1013.5 |
| 20260902025905 | 87 | 101 | 2.0 | 4.0 | 0.00 | 0.00 | 0.00 | 54 | 1013.5 |
| 20260902025805 | 87 | 100 | 2.0 | 4.0 | 0.00 | 0.00 | 0.00 | 54 | 1013.4 |
| 20260902025707 | 87 | 100 | 2.0 | 4.0 | 0.00 | 0.00 | 0.00 | 54 | 1013.4 |
| 20260902025605 | 87 | 100 | 2.0 | 4.0 | 0.00 | 0.00 | 0.00 | 54 | 1013.5 |
| 20260902025506 | 87 | 100 | 2.0 | 4.0 | 0.00 | 0.00 | 0.00 | 54 | 1013.4 |
| 20260902025405 | 87 | 100 | 2.0 | 4.0 | 0.00 | 0.00 | 0.00 | 54 | 1013.3 |
| 20260902025306 | 87 | 100 | 2.0 | 4.0 | 0.00 | 0.00 | 0.00 | 54 | 1013.3 |
| 20260902025205 | 87 | 100 | 2.0 | 4.0 | 0.00 | 0.00 | 0.00 | 54 | 1013.3 |
| 20260902025105 | 87 | 100 | 2.0 | 4.0 | 0.00 | 0.00 | 0.00 | 54 | 1013.3 |
| 20260902025005 | 87 | 99 | 2.0 | 4.0 | 0.00 | 0.00 | 0.00 | 54 | 1013.2 |
| 20260902024905 | 88 | 98 | 2.0 | 4.0 | 0.00 | 0.00 | 0.00 | 54 | 1013.2 |
| 20260902024605 | 88 | 99 | 2.0 | 4.0 | 0.00 | 0.00 | 0.00 | 53 | 1013.1 |
| 20260902024404 | 88 | 100 | 2.0 | 4.0 | 0.00 | 0.00 | 0.00 | 53 | 1013.0 |
| 20260902024305 | 88 | 100 | 2.0 | 4.0 | 0.00 | 0.00 | 0.00 | 53 | 1013.0 |
| 20260902024205 | 88 | 101 | 2.0 | 4.0 | 0.00 | 0.00 | 0.00 | 53 | 1013.0 |
| 20260902024105 | 88 | 101 | 2.0 | 4.0 | 0.00 | 0.00 | 0.00 | 53 | 1013.0 |
| 20260902023905 | 88 | 104 | 2.0 | 4.0 | 0.00 | 0.00 | 0.00 | 53 | 1013.0 |
| 20260902023805 | 88 | 105 | 2.0 | 4.0 | 0.00 | 0.00 | 0.00 | 53 | 1013.0 |
| 20260902023705 | 88 | 105 | 3.0 | 4.0 | 0.00 | 0.00 | 0.00 | 53 | 1012.9 |
| 20260902023605 | 88 | 106 | 2.0 | 5.0 | 0.00 | 0.00 | 0.00 | 53 | 1012.9 |
| 20260902023505 | 88 | 107 | 2.0 | 5.0 | 0.00 | 0.00 | 0.00 | 52 | 1012.9 |
| 20260902023405 | 88 | 108 | 2.0 | 5.0 | 0.00 | 0.00 | 0.00 | 52 | 1012.9 |
| 20260902023204 | 88 | 107 | 3.0 | 5.0 | 0.00 | 0.00 | 0.00 | 52 | 1012.9 |
| 20260902023005 | 88 | 106 | 3.0 | 5.0 | 0.00 | 0.00 | 0.00 | 52 | 1012.8 |
| 20260902022905 | 88 | 106 | 3.0 | 5.0 | 0.00 | 0.00 | 0.00 | 52 | 1012.9 |
| 20260902022805 | 88 | 105 | 3.0 | 5.0 | 0.00 | 0.00 | 0.00 | 52 | 1012.9 |
| 20260902022604 | 88 | 106 | 3.0 | 5.0 | 0.00 | 0.00 | 0.00 | 52 | 1012.8 |
| 20260902022505 | 88 | 106 | 3.0 | 5.0 | 0.00 | 0.00 | 0.00 | 52 | 1012.8 |
| 20260902022405 | 88 | 106 | 3.0 | 5.0 | 0.00 | 0.00 | 0.00 | 51 | 1012.8 |
| 20260902022306 | 89 | 107 | 3.0 | 5.0 | 0.00 | 0.00 | 0.00 | 51 | 1012.7 |
| 20260902022205 | 89 | 108 | 3.0 | 5.0 | 0.00 | 0.00 | 0.00 | 51 | 1012.7 |
| 20260902022106 | 89 | 109 | 3.0 | 5.0 | 0.00 | 0.00 | 0.00 | 51 | 1012.7 |
| 20260902022005 | 89 | 109 | 2.0 | 5.0 | 0.00 | 0.00 | 0.00 | 50 | 1012.7 |
| 20260902021905 | 89 | 110 | 2.0 | 5.0 | 0.00 | 0.00 | 0.00 | 50 | 1012.7 |
| 20260902021705 | 89 | 108 | 3.0 | 5.0 | 0.00 | 0.00 | 0.00 | 50 | 1012.6 |
| 20260902021605 | 89 | 106 | 3.0 | 5.0 | 0.00 | 0.00 | 0.00 | 50 | 1012.6 |
| 20260902021505 | 89 | 106 | 3.0 | 5.0 | 0.00 | 0.00 | 0.00 | 50 | 1012.5 |
| 20260902021405 | 89 | 104 | 3.0 | 6.0 | 0.00 | 0.00 | 0.00 | 50 | 1012.5 |
| 20260902021305 | 89 | 103 | 3.0 | 6.0 | 0.00 | 0.00 | 0.00 | 50 | 1012.5 |
| 20260902021205 | 89 | 102 | 3.0 | 6.0 | 0.00 | 0.00 | 0.00 | 50 | 1012.5 |
| 20260902021105 | 89 | 101 | 3.0 | 6.0 | 0.00 | 0.00 | 0.00 | 50 | 1012.5 |
| 20260902020905 | 89 | 99 | 3.0 | 6.0 | 0.00 | 0.00 | 0.00 | 50 | 1012.5 |
| 20260902020805 | 89 | 99 | 3.0 | 6.0 | 0.00 | 0.00 | 0.00 | 50 | 1012.5 |
| 20260902020705 | 89 | 98 | 3.0 | 6.0 | 0.00 | 0.00 | 0.00 | 50 | 1012.4 |
| 20260902020505 | 89 | 97 | 3.0 | 6.0 | 0.00 | 0.00 | 0.00 | 50 | 1012.4 |
| 20260902020405 | 89 | 98 | 3.0 | 5.0 | 0.00 | 0.00 | 0.00 | 50 | 1012.4 |
| 20260902020305 | 89 | 98 | 3.0 | 5.0 | 0.00 | 0.00 | 0.00 | 50 | 1012.4 |
| 20260902020205 | 90 | 99 | 3.0 | 5.0 | 0.00 | 0.00 | 0.00 | 50 | 1012.4 |
| 20260902020106 | 90 | 100 | 3.0 | 5.0 | 0.00 | 0.00 | 0.00 | 50 | 1012.4 |
| 20260902020005 | 90 | 100 | 3.0 | 5.0 | 0.00 | 0.00 | 0.00 | 49 | 1012.4 |
| 20260902015905 | 90 | 99 | 3.0 | 5.0 | 0.00 | 0.00 | 0.00 | 49 | 1012.4 |
| 20260902015805 | 90 | 99 | 3.0 | 6.0 | 0.00 | 0.00 | 0.00 | 49 | 1012.4 |
| 20260902015706 | 90 | 100 | 3.0 | 6.0 | 0.00 | 0.00 | 0.00 | 49 | 1012.4 |
| 20260902015505 | 90 | 100 | 3.0 | 6.0 | 0.00 | 0.00 | 0.00 | 49 | 1012.3 |
| 20260902015405 | 90 | 99 | 4.0 | 6.0 | 0.00 | 0.00 | 0.00 | 48 | 1012.3 |
| 20260902015205 | 90 | 99 | 4.0 | 6.0 | 0.00 | 0.00 | 0.00 | 48 | 1012.3 |
| 20260902015105 | 90 | 98 | 4.0 | 6.0 | 0.00 | 0.00 | 0.00 | 48 | 1012.3 |
| 20260902015005 | 90 | 99 | 4.0 | 6.0 | 0.00 | 0.00 | 0.00 | 48 | 1012.3 |
| 20260902014805 | 90 | 99 | 4.0 | 8.0 | 0.00 | 0.00 | 0.00 | 48 | 1012.3 |
| 20260902014705 | 90 | 99 | 4.0 | 8.0 | 0.00 | 0.00 | 0.00 | 48 | 1012.2 |
| 20260902014605 | 90 | 99 | 4.0 | 8.0 | 0.00 | 0.00 | 0.00 | 48 | 1012.2 |
| 20260902014506 | 90 | 99 | 4.0 | 8.0 | 0.00 | 0.00 | 0.00 | 48 | 1012.2 |
| 20260902014406 | 90 | 99 | 4.0 | 8.0 | 0.00 | 0.00 | 0.00 | 48 | 1012.2 |
| 20260902014305 | 90 | 99 | 4.0 | 8.0 | 0.00 | 0.00 | 0.00 | 48 | 1012.2 |
| 20260902014205 | 90 | 98 | 4.0 | 8.0 | 0.00 | 0.00 | 0.00 | 48 | 1012.2 |
| 20260902014105 | 91 | 98 | 4.0 | 8.0 | 0.00 | 0.00 | 0.00 | 48 | 1012.2 |
| 20260902013905 | 91 | 98 | 4.0 | 8.0 | 0.00 | 0.00 | 0.00 | 47 | 1012.2 |
| 20260902013806 | 91 | 98 | 4.0 | 8.0 | 0.00 | 0.00 | 0.00 | 47 | 1012.2 |
| 20260902013705 | 91 | 98 | 4.0 | 8.0 | 0.00 | 0.00 | 0.00 | 47 | 1012.2 |
| 20260902013604 | 91 | 98 | 4.0 | 8.0 | 0.00 | 0.00 | 0.00 | 47 | 1012.2 |
| 20260902013505 | 91 | 98 | 4.0 | 8.0 | 0.00 | 0.00 | 0.00 | 47 | 1012.2 |
| 20260902013405 | 91 | 98 | 4.0 | 8.0 | 0.00 | 0.00 | 0.00 | 47 | 1012.2 |
| 20260902013306 | 91 | 97 | 4.0 | 8.0 | 0.00 | 0.00 | 0.00 | 47 | 1012.2 |
| 20260902013205 | 91 | 97 | 4.0 | 8.0 | 0.00 | 0.00 | 0.00 | 47 | 1012.2 |
| 20260902013105 | 91 | 97 | 4.0 | 8.0 | 0.00 | 0.00 | 0.00 | 46 | 1012.1 |
| 20260902012805 | 91 | 97 | 4.0 | 8.0 | 0.00 | 0.00 | 0.00 | 46 | 1012.2 |
| 20260902012705 | 91 | 99 | 4.0 | 8.0 | 0.00 | 0.00 | 0.00 | 46 | 1012.2 |
| 20260902012605 | 91 | 98 | 4.0 | 8.0 | 0.00 | 0.00 | 0.00 | 46 | 1012.1 |
| 20260902012505 | 91 | 98 | 4.0 | 8.0 | 0.00 | 0.00 | 0.00 | 45 | 1012.1 |
| 20260902012404 | 92 | 98 | 4.0 | 8.0 | 0.00 | 0.00 | 0.00 | 45 | 1012.1 |
| 20260902012204 | 92 | 99 | 5.0 | 10.0 | 0.00 | 0.00 | 0.00 | 45 | 1012.1 |
| 20260902012105 | 92 | 98 | 5.0 | 10.0 | 0.00 | 0.00 | 0.00 | 45 | 1012.1 |
| 20260902012006 | 92 | 98 | 5.0 | 10.0 | 0.00 | 0.00 | 0.00 | 45 | 1012.0 |
| 20260902011905 | 92 | 98 | 5.0 | 10.0 | 0.00 | 0.00 | 0.00 | 45 | 1012.0 |
| 20260902011805 | 92 | 97 | 5.0 | 10.0 | 0.00 | 0.00 | 0.00 | 45 | 1012.0 |
| 20260902011505 | 92 | 95 | 5.0 | 10.0 | 0.00 | 0.00 | 0.00 | 44 | 1012.0 |
| 20260902011405 | 92 | 96 | 5.0 | 10.0 | 0.00 | 0.00 | 0.00 | 44 | 1011.9 |
| 20260902011305 | 92 | 98 | 5.0 | 10.0 | 0.00 | 0.00 | 0.00 | 44 | 1011.9 |
| 20260902011204 | 92 | 97 | 5.0 | 10.0 | 0.00 | 0.00 | 0.00 | 44 | 1011.9 |
| 20260902011005 | 92 | 98 | 6.0 | 11.0 | 0.00 | 0.00 | 0.00 | 45 | 1011.9 |
| 20260902010905 | 92 | 98 | 6.0 | 11.0 | 0.00 | 0.00 | 0.00 | 44 | 1011.9 |
| 20260902010805 | 92 | 98 | 6.0 | 11.0 | 0.00 | 0.00 | 0.00 | 44 | 1011.9 |
| 20260902010705 | 92 | 98 | 6.0 | 11.0 | 0.00 | 0.00 | 0.00 | 44 | 1011.9 |
| 20260902010605 | 92 | 99 | 7.0 | 11.0 | 0.00 | 0.00 | 0.00 | 44 | 1011.9 |
| 20260902010505 | 93 | 98 | 7.0 | 12.0 | 0.00 | 0.00 | 0.00 | 44 | 1011.9 |
| 20260902010405 | 93 | 98 | 6.0 | 12.0 | 0.00 | 0.00 | 0.00 | 44 | 1011.8 |
| 20260902010305 | 93 | 97 | 6.0 | 12.0 | 0.00 | 0.00 | 0.00 | 44 | 1011.8 |
| 20260902010205 | 93 | 97 | 6.0 | 12.0 | 0.00 | 0.00 | 0.00 | 44 | 1011.8 |
| 20260902005905 | 93 | 100 | 6.0 | 12.0 | 0.00 | 0.00 | 0.00 | 44 | 1011.9 |
| 20260902005605 | 93 | 103 | 6.0 | 12.0 | 0.00 | 0.00 | 0.00 | 44 | 1011.9 |
| 20260902005505 | 93 | 106 | 5.0 | 11.0 | 0.00 | 0.00 | 0.00 | 44 | 1011.9 |
| 20260902005306 | 93 | 105 | 5.0 | 11.0 | 0.00 | 0.00 | 0.00 | 43 | 1011.9 |
| 20260902005205 | 93 | 106 | 5.0 | 11.0 | 0.00 | 0.00 | 0.00 | 43 | 1011.9 |
| 20260902005105 | 93 | 105 | 5.0 | 11.0 | 0.00 | 0.00 | 0.00 | 43 | 1011.9 |
| 20260902005005 | 93 | 104 | 5.0 | 10.0 | 0.00 | 0.00 | 0.00 | 43 | 1011.9 |
| 20260902004905 | 93 | 103 | 5.0 | 10.0 | 0.00 | 0.00 | 0.00 | 43 | 1011.9 |
| 20260902004804 | 93 | 102 | 5.0 | 10.0 | 0.00 | 0.00 | 0.00 | 43 | 1011.9 |
| 20260902004705 | 94 | 101 | 5.0 | 10.0 | 0.00 | 0.00 | 0.00 | 43 | 1011.9 |
| 20260902004405 | 94 | 98 | 5.0 | 10.0 | 0.00 | 0.00 | 0.00 | 43 | 1012.0 |
| 20260902004305 | 94 | 98 | 5.0 | 11.0 | 0.00 | 0.00 | 0.00 | 43 | 1012.0 |
| 20260902004204 | 94 | 97 | 5.0 | 11.0 | 0.00 | 0.00 | 0.00 | 43 | 1012.0 |
| 20260902004105 | 94 | 96 | 6.0 | 11.0 | 0.00 | 0.00 | 0.00 | 43 | 1012.0 |
| 20260902004005 | 94 | 95 | 6.0 | 11.0 | 0.00 | 0.00 | 0.00 | 43 | 1011.9 |
| 20260902003905 | 94 | 95 | 6.0 | 11.0 | 0.00 | 0.00 | 0.00 | 43 | 1011.9 |
| 20260902003805 | 94 | 94 | 6.0 | 11.0 | 0.00 | 0.00 | 0.00 | 42 | 1011.9 |
| 20260902003705 | 94 | 94 | 6.0 | 11.0 | 0.00 | 0.00 | 0.00 | 42 | 1011.9 |
| 20260902003505 | 94 | 95 | 7.0 | 14.0 | 0.00 | 0.00 | 0.00 | 42 | 1011.9 |
| 20260902003405 | 94 | 95 | 6.0 | 14.0 | 0.00 | 0.00 | 0.00 | 42 | 1011.9 |
| 20260902003305 | 94 | 96 | 6.0 | 14.0 | 0.00 | 0.00 | 0.00 | 42 | 1012.0 |
| 20260902003205 | 94 | 95 | 6.0 | 14.0 | 0.00 | 0.00 | 0.00 | 42 | 1011.9 |
| 20260902003106 | 94 | 94 | 6.0 | 14.0 | 0.00 | 0.00 | 0.00 | 42 | 1012.0 |
| 20260902003005 | 94 | 93 | 6.0 | 14.0 | 0.00 | 0.00 | 0.00 | 42 | 1012.0 |
| 20260902002905 | 94 | 94 | 6.0 | 14.0 | 0.00 | 0.00 | 0.00 | 42 | 1011.9 |
| 20260902002805 | 94 | 94 | 6.0 | 14.0 | 0.00 | 0.00 | 0.00 | 42 | 1012.0 |
| 20260902002705 | 95 | 94 | 6.0 | 14.0 | 0.00 | 0.00 | 0.00 | 42 | 1012.0 |
| 20260902002605 | 95 | 93 | 6.0 | 14.0 | 0.00 | 0.00 | 0.00 | 42 | 1012.0 |
| 20260902002306 | 95 | 97 | 6.0 | 12.0 | 0.00 | 0.00 | 0.00 | 42 | 1011.9 |
| 20260902002205 | 95 | 99 | 6.0 | 12.0 | 0.00 | 0.00 | 0.00 | 42 | 1011.9 |
| 20260902002105 | 95 | 101 | 6.0 | 12.0 | 0.00 | 0.00 | 0.00 | 41 | 1012.0 |
| 20260902002005 | 95 | 103 | 6.0 | 12.0 | 0.00 | 0.00 | 0.00 | 41 | 1012.0 |
| 20260902001905 | 95 | 102 | 6.0 | 12.0 | 0.00 | 0.00 | 0.00 | 41 | 1012.0 |
| 20260902001805 | 95 | 102 | 7.0 | 12.0 | 0.00 | 0.00 | 0.00 | 41 | 1012.0 |
| 20260902001606 | 95 | 103 | 7.0 | 12.0 | 0.00 | 0.00 | 0.00 | 41 | 1012.0 |
| 20260902001505 | 95 | 105 | 6.0 | 12.0 | 0.00 | 0.00 | 0.00 | 41 | 1012.0 |
| 20260902001405 | 95 | 103 | 6.0 | 12.0 | 0.00 | 0.00 | 0.00 | 40 | 1012.0 |
| 20260902001305 | 96 | 102 | 6.0 | 12.0 | 0.00 | 0.00 | 0.00 | 40 | 1012.0 |
| 20260902001205 | 96 | 102 | 6.0 | 12.0 | 0.00 | 0.00 | 0.00 | 40 | 1012.0 |
| 20260902001004 | 96 | 105 | 6.0 | 12.0 | 0.00 | 0.00 | 0.00 | 40 | 1012.0 |
| 20260902000906 | 96 | 107 | 5.0 | 12.0 | 0.00 | 0.00 | 0.00 | 40 | 1012.0 |
| 20260902000805 | 96 | 108 | 5.0 | 12.0 | 0.00 | 0.00 | 0.00 | 39 | 1012.0 |
| 20260902000704 | 96 | 110 | 5.0 | 10.0 | 0.00 | 0.00 | 0.00 | 39 | 1011.9 |
| 20260902000605 | 96 | 111 | 5.0 | 10.0 | 0.00 | 0.00 | 0.00 | 39 | 1012.0 |
| 20260902000505 | 96 | 111 | 5.0 | 10.0 | 0.00 | 0.00 | 0.00 | 39 | 1011.9 |
| 20260902000305 | 96 | 116 | 5.0 | 11.0 | 0.00 | 0.00 | 0.00 | 39 | 1011.9 |
| 20260902000105 | 96 | 115 | 5.0 | 11.0 | 0.00 | 0.00 | 0.00 | 39 | 1011.9 |
| 20260901235806 | 96 | 108 | 5.0 | 11.0 | 0.00 | 0.00 | 0.00 | 39 | 1011.9 |
| 20260901235705 | 96 | 106 | 5.0 | 11.0 | 0.00 | 0.00 | 0.00 | 39 | 1012.0 |
| 20260901235405 | 96 | 98 | 4.0 | 11.0 | 0.00 | 0.00 | 0.00 | 39 | 1012.0 |
| 20260901235307 | 96 | 96 | 5.0 | 11.0 | 0.00 | 0.00 | 0.00 | 39 | 1012.0 |
| 20260901235205 | 96 | 98 | 5.0 | 11.0 | 0.00 | 0.00 | 0.00 | 40 | 1012.0 |
| 20260901235105 | 96 | 101 | 5.0 | 11.0 | 0.00 | 0.00 | 0.00 | 39 | 1012.0 |
| 20260901235005 | 96 | 102 | 5.0 | 11.0 | 0.00 | 0.00 | 0.00 | 39 | 1012.1 |
| 20260901234905 | 96 | 106 | 5.0 | 11.0 | 0.00 | 0.00 | 0.00 | 39 | 1012.0 |
| 20260901234805 | 96 | 109 | 5.0 | 11.0 | 0.00 | 0.00 | 0.00 | 39 | 1012.0 |
| 20260901234705 | 96 | 110 | 6.0 | 11.0 | 0.00 | 0.00 | 0.00 | 39 | 1012.1 |
| 20260901234605 | 96 | 108 | 6.0 | 12.0 | 0.00 | 0.00 | 0.00 | 39 | 1012.1 |
| 20260901234505 | 96 | 107 | 6.0 | 12.0 | 0.00 | 0.00 | 0.00 | 39 | 1012.1 |
| 20260901234405 | 96 | 106 | 7.0 | 13.0 | 0.00 | 0.00 | 0.00 | 39 | 1012.1 |
| 20260901234305 | 96 | 105 | 7.0 | 13.0 | 0.00 | 0.00 | 0.00 | 39 | 1012.1 |
| 20260901234205 | 96 | 103 | 7.0 | 13.0 | 0.00 | 0.00 | 0.00 | 39 | 1012.1 |
| 20260901234105 | 96 | 100 | 7.0 | 13.0 | 0.00 | 0.00 | 0.00 | 39 | 1012.1 |
| 20260901234005 | 96 | 98 | 7.0 | 13.0 | 0.00 | 0.00 | 0.00 | 39 | 1012.1 |
| 20260901233905 | 97 | 97 | 7.0 | 13.0 | 0.00 | 0.00 | 0.00 | 39 | 1012.1 |
| 20260901233805 | 97 | 96 | 7.0 | 13.0 | 0.00 | 0.00 | 0.00 | 39 | 1012.1 |
| 20260901233705 | 97 | 96 | 6.0 | 13.0 | 0.00 | 0.00 | 0.00 | 39 | 1012.1 |
| 20260901233505 | 97 | 101 | 6.0 | 13.0 | 0.00 | 0.00 | 0.00 | 39 | 1012.1 |
| 20260901233404 | 97 | 100 | 6.0 | 13.0 | 0.00 | 0.00 | 0.00 | 39 | 1012.2 |
| 20260901233305 | 97 | 99 | 6.0 | 11.0 | 0.00 | 0.00 | 0.00 | 39 | 1012.1 |
| 20260901233204 | 97 | 98 | 6.0 | 11.0 | 0.00 | 0.00 | 0.00 | 39 | 1012.1 |
| 20260901233105 | 97 | 97 | 6.0 | 11.0 | 0.00 | 0.00 | 0.00 | 39 | 1012.1 |
| 20260901233005 | 97 | 97 | 6.0 | 11.0 | 0.00 | 0.00 | 0.00 | 39 | 1012.1 |
| 20260901232905 | 97 | 97 | 7.0 | 12.0 | 0.00 | 0.00 | 0.00 | 39 | 1012.1 |
| 20260901232805 | 97 | 97 | 7.0 | 14.0 | 0.00 | 0.00 | 0.00 | 38 | 1012.1 |
| 20260901232705 | 98 | 97 | 7.0 | 14.0 | 0.00 | 0.00 | 0.00 | 38 | 1012.1 |
| 20260901232605 | 98 | 98 | 7.0 | 14.0 | 0.00 | 0.00 | 0.00 | 39 | 1012.2 |
| 20260901232505 | 98 | 98 | 7.0 | 14.0 | 0.00 | 0.00 | 0.00 | 39 | 1012.1 |
| 20260901232405 | 98 | 101 | 7.0 | 14.0 | 0.00 | 0.00 | 0.00 | 39 | 1012.1 |
| 20260901232306 | 97 | 102 | 7.0 | 14.0 | 0.00 | 0.00 | 0.00 | 39 | 1012.2 |
| 20260901232205 | 97 | 104 | 7.0 | 14.0 | 0.00 | 0.00 | 0.00 | 39 | 1012.2 |
| 20260901232104 | 97 | 108 | 7.0 | 14.0 | 0.00 | 0.00 | 0.00 | 39 | 1012.2 |
| 20260901232005 | 97 | 108 | 7.0 | 14.0 | 0.00 | 0.00 | 0.00 | 39 | 1012.1 |
| 20260901231905 | 97 | 107 | 7.0 | 14.0 | 0.00 | 0.00 | 0.00 | 39 | 1012.2 |
| 20260901231805 | 97 | 108 | 6.0 | 13.0 | 0.00 | 0.00 | 0.00 | 39 | 1012.2 |
| 20260901231706 | 97 | 108 | 7.0 | 13.0 | 0.00 | 0.00 | 0.00 | 39 | 1012.2 |
| 20260901231605 | 97 | 103 | 6.0 | 13.0 | 0.00 | 0.00 | 0.00 | 39 | 1012.1 |
| 20260901231505 | 97 | 101 | 6.0 | 13.0 | 0.00 | 0.00 | 0.00 | 39 | 1012.2 |
| 20260901231404 | 97 | 100 | 6.0 | 13.0 | 0.00 | 0.00 | 0.00 | 39 | 1012.2 |
| 20260901231305 | 98 | 99 | 7.0 | 11.0 | 0.00 | 0.00 | 0.00 | 38 | 1012.2 |
| 20260901231204 | 98 | 100 | 7.0 | 13.0 | 0.00 | 0.00 | 0.00 | 38 | 1012.2 |
| 20260901231105 | 98 | 97 | 7.0 | 15.0 | 0.00 | 0.00 | 0.00 | 39 | 1012.2 |
| 20260901231005 | 98 | 100 | 7.0 | 15.0 | 0.00 | 0.00 | 0.00 | 39 | 1012.2 |
| 20260901230905 | 98 | 102 | 8.0 | 15.0 | 0.00 | 0.00 | 0.00 | 39 | 1012.2 |
| 20260901230704 | 98 | 105 | 8.0 | 15.0 | 0.00 | 0.00 | 0.00 | 39 | 1012.2 |
| 20260901230405 | 98 | 108 | 9.0 | 15.0 | 0.00 | 0.00 | 0.00 | 39 | 1012.2 |
| 20260901230305 | 98 | 107 | 8.0 | 15.0 | 0.00 | 0.00 | 0.00 | 39 | 1012.2 |
| 20260901230205 | 98 | 107 | 8.0 | 15.0 | 0.00 | 0.00 | 0.00 | 39 | 1012.2 |
| 20260901230105 | 98 | 107 | 7.0 | 14.0 | 0.00 | 0.00 | 0.00 | 39 | 1012.2 |
| 20260901230005 | 98 | 106 | 7.0 | 14.0 | 0.00 | 0.00 | 0.00 | 39 | 1012.2 |
| 20260901225904 | 98 | 106 | 7.0 | 14.0 | 0.00 | 0.00 | 0.00 | 39 | 1012.2 |
| 20260901225804 | 98 | 104 | 6.0 | 14.0 | 0.00 | 0.00 | 0.00 | 39 | 1012.2 |
| 20260901225705 | 98 | 101 | 6.0 | 13.0 | 0.00 | 0.00 | 0.00 | 39 | 1012.2 |
| 20260901225505 | 98 | 97 | 5.0 | 12.0 | 0.00 | 0.00 | 0.00 | 39 | 1012.3 |
| 20260901225405 | 99 | 95 | 5.0 | 11.0 | 0.00 | 0.00 | 0.00 | 39 | 1012.2 |
| 20260901225306 | 99 | 94 | 5.0 | 12.0 | 0.00 | 0.00 | 0.00 | 38 | 1012.2 |
| 20260901225205 | 99 | 95 | 5.0 | 12.0 | 0.00 | 0.00 | 0.00 | 37 | 1012.2 |
| 20260901225105 | 99 | 100 | 6.0 | 12.0 | 0.00 | 0.00 | 0.00 | 37 | 1012.2 |
| 20260901225005 | 98 | 104 | 6.0 | 12.0 | 0.00 | 0.00 | 0.00 | 37 | 1012.2 |
| 20260901224904 | 98 | 104 | 7.0 | 12.0 | 0.00 | 0.00 | 0.00 | 37 | 1012.2 |
| 20260901224805 | 98 | 104 | 7.0 | 12.0 | 0.00 | 0.00 | 0.00 | 37 | 1012.2 |
| 20260901224605 | 98 | 109 | 8.0 | 15.0 | 0.00 | 0.00 | 0.00 | 37 | 1012.2 |
| 20260901224505 | 98 | 110 | 8.0 | 15.0 | 0.00 | 0.00 | 0.00 | 37 | 1012.2 |
| 20260901224404 | 98 | 111 | 8.0 | 15.0 | 0.00 | 0.00 | 0.00 | 37 | 1012.2 |
| 20260901224305 | 98 | 115 | 7.0 | 15.0 | 0.00 | 0.00 | 0.00 | 37 | 1012.1 |
| 20260901224205 | 98 | 116 | 7.0 | 15.0 | 0.00 | 0.00 | 0.00 | 37 | 1012.1 |
| 20260901224105 | 98 | 116 | 8.0 | 15.0 | 0.00 | 0.00 | 0.00 | 37 | 1012.2 |
| 20260901224005 | 99 | 116 | 7.0 | 15.0 | 0.00 | 0.00 | 0.00 | 37 | 1012.2 |
| 20260901223904 | 99 | 116 | 7.0 | 15.0 | 0.00 | 0.00 | 0.00 | 37 | 1012.2 |
| 20260901223805 | 99 | 116 | 7.0 | 15.0 | 0.00 | 0.00 | 0.00 | 36 | 1012.2 |
| 20260901223704 | 99 | 115 | 6.0 | 15.0 | 0.00 | 0.00 | 0.00 | 36 | 1012.2 |
| 20260901223505 | 99 | 112 | 7.0 | 14.0 | 0.00 | 0.00 | 0.00 | 37 | 1012.2 |
| 20260901223204 | 99 | 105 | 7.0 | 14.0 | 0.00 | 0.00 | 0.00 | 37 | 1012.2 |
| 20260901223105 | 100 | 101 | 7.0 | 14.0 | 0.00 | 0.00 | 0.00 | 37 | 1012.2 |
| 20260901222905 | 100 | 95 | 7.0 | 13.0 | 0.00 | 0.00 | 0.00 | 38 | 1012.3 |
| 20260901222804 | 100 | 95 | 7.0 | 13.0 | 0.00 | 0.00 | 0.00 | 38 | 1012.2 |
| 20260901222604 | 100 | 94 | 7.0 | 13.0 | 0.00 | 0.00 | 0.00 | 37 | 1012.2 |
| 20260901222505 | 100 | 94 | 6.0 | 13.0 | 0.00 | 0.00 | 0.00 | 37 | 1012.2 |
| 20260901222404 | 100 | 95 | 6.0 | 13.0 | 0.00 | 0.00 | 0.00 | 37 | 1012.2 |
| 20260901222306 | 100 | 97 | 6.0 | 13.0 | 0.00 | 0.00 | 0.00 | 37 | 1012.2 |
| 20260901222205 | 100 | 101 | 6.0 | 13.0 | 0.00 | 0.00 | 0.00 | 37 | 1012.2 |
| 20260901222105 | 100 | 104 | 5.0 | 13.0 | 0.00 | 0.00 | 0.00 | 37 | 1012.2 |
| 20260901222005 | 100 | 109 | 4.0 | 11.0 | 0.00 | 0.00 | 0.00 | 37 | 1012.2 |
| 20260901221904 | 100 | 111 | 4.0 | 10.0 | 0.00 | 0.00 | 0.00 | 37 | 1012.2 |
| 20260901221805 | 100 | 114 | 4.0 | 10.0 | 0.00 | 0.00 | 0.00 | 37 | 1012.2 |
| 20260901221605 | 100 | 116 | 4.0 | 9.0 | 0.00 | 0.00 | 0.00 | 37 | 1012.2 |
| 20260901221505 | 99 | 116 | 4.0 | 9.0 | 0.00 | 0.00 | 0.00 | 37 | 1012.2 |
| 20260901221405 | 99 | 109 | 5.0 | 11.0 | 0.00 | 0.00 | 0.00 | 37 | 1012.2 |
| 20260901221305 | 99 | 104 | 5.0 | 11.0 | 0.00 | 0.00 | 0.00 | 37 | 1012.2 |
| 20260901221204 | 99 | 100 | 5.0 | 14.0 | 0.00 | 0.00 | 0.00 | 38 | 1012.2 |
| 20260901221105 | 99 | 99 | 6.0 | 14.0 | 0.00 | 0.00 | 0.00 | 38 | 1012.2 |
| 20260901220705 | 99 | 93 | 7.0 | 14.0 | 0.00 | 0.00 | 0.00 | 37 | 1012.3 |
| 20260901220604 | 100 | 94 | 7.0 | 14.0 | 0.00 | 0.00 | 0.00 | 37 | 1012.3 |
| 20260901220506 | 100 | 92 | 7.0 | 14.0 | 0.00 | 0.00 | 0.00 | 37 | 1012.3 |
| 20260901220405 | 100 | 93 | 7.0 | 14.0 | 0.00 | 0.00 | 0.00 | 37 | 1012.3 |
| 20260901220304 | 100 | 92 | 6.0 | 14.0 | 0.00 | 0.00 | 0.00 | 37 | 1012.3 |
| 20260901220205 | 100 | 94 | 6.0 | 14.0 | 0.00 | 0.00 | 0.00 | 37 | 1012.3 |
| 20260901220105 | 99 | 94 | 6.0 | 14.0 | 0.00 | 0.00 | 0.00 | 37 | 1012.3 |
| 20260901220004 | 99 | 98 | 6.0 | 14.0 | 0.00 | 0.00 | 0.00 | 37 | 1012.3 |
| 20260901215905 | 99 | 99 | 5.0 | 14.0 | 0.00 | 0.00 | 0.00 | 37 | 1012.3 |
| 20260901215804 | 99 | 106 | 5.0 | 14.0 | 0.00 | 0.00 | 0.00 | 37 | 1012.3 |
| 20260901215504 | 100 | 120 | 4.0 | 11.0 | 0.00 | 0.00 | 0.00 | 37 | 1012.3 |
| 20260901215405 | 100 | 113 | 4.0 | 11.0 | 0.00 | 0.00 | 0.00 | 36 | 1012.3 |
| 20260901215205 | 100 | 104 | 5.0 | 13.0 | 0.00 | 0.00 | 0.00 | 36 | 1012.3 |
| 20260901215104 | 100 | 99 | 6.0 | 13.0 | 0.00 | 0.00 | 0.00 | 36 | 1012.2 |
| 20260901214905 | 100 | 98 | 6.0 | 13.0 | 0.00 | 0.00 | 0.00 | 36 | 1012.2 |
| 20260901214805 | 100 | 92 | 5.0 | 13.0 | 0.00 | 0.00 | 0.00 | 37 | 1012.2 |
| 20260901214705 | 99 | 88 | 6.0 | 13.0 | 0.00 | 0.00 | 0.00 | 37 | 1012.3 |
| 20260901214604 | 99 | 85 | 6.0 | 13.0 | 0.00 | 0.00 | 0.00 | 37 | 1012.2 |
| 20260901214505 | 99 | 82 | 5.0 | 13.0 | 0.00 | 0.00 | 0.00 | 36 | 1012.3 |
| 20260901214305 | 99 | 82 | 5.0 | 13.0 | 0.00 | 0.00 | 0.00 | 38 | 1012.3 |
| 20260901214205 | 99 | 86 | 5.0 | 13.0 | 0.00 | 0.00 | 0.00 | 38 | 1012.3 |
| 20260901214105 | 98 | 89 | 5.0 | 13.0 | 0.00 | 0.00 | 0.00 | 37 | 1012.3 |
| 20260901214005 | 98 | 88 | 6.0 | 13.0 | 0.00 | 0.00 | 0.00 | 37 | 1012.3 |
| 20260901213905 | 98 | 88 | 7.0 | 13.0 | 0.00 | 0.00 | 0.00 | 37 | 1012.3 |
| 20260901213804 | 99 | 90 | 7.0 | 13.0 | 0.00 | 0.00 | 0.00 | 37 | 1012.3 |
| 20260901213705 | 99 | 90 | 7.0 | 13.0 | 0.00 | 0.00 | 0.00 | 37 | 1012.3 |
| 20260901213505 | 99 | 91 | 7.0 | 13.0 | 0.00 | 0.00 | 0.00 | 37 | 1012.4 |
| 20260901213404 | 99 | 90 | 6.0 | 13.0 | 0.00 | 0.00 | 0.00 | 37 | 1012.4 |
| 20260901213305 | 99 | 93 | 6.0 | 13.0 | 0.00 | 0.00 | 0.00 | 37 | 1012.4 |
| 20260901213204 | 99 | 94 | 5.0 | 13.0 | 0.00 | 0.00 | 0.00 | 38 | 1012.4 |
| 20260901213104 | 99 | 92 | 5.0 | 13.0 | 0.00 | 0.00 | 0.00 | 38 | 1012.4 |
| 20260901213005 | 98 | 90 | 5.0 | 13.0 | 0.00 | 0.00 | 0.00 | 38 | 1012.4 |
| 20260901212904 | 98 | 86 | 4.0 | 13.0 | 0.00 | 0.00 | 0.00 | 38 | 1012.4 |
| 20260901212805 | 98 | 81 | 4.0 | 9.0 | 0.00 | 0.00 | 0.00 | 38 | 1012.4 |
| 20260901212705 | 98 | 79 | 5.0 | 9.0 | 0.00 | 0.00 | 0.00 | 38 | 1012.4 |
| 20260901212604 | 98 | 79 | 5.0 | 9.0 | 0.00 | 0.00 | 0.00 | 37 | 1012.4 |
| 20260901212504 | 98 | 81 | 5.0 | 9.0 | 0.00 | 0.00 | 0.00 | 36 | 1012.4 |
| 20260901212405 | 99 | 85 | 5.0 | 10.0 | 0.00 | 0.00 | 0.00 | 36 | 1012.4 |
| 20260901212306 | 99 | 83 | 5.0 | 10.0 | 0.00 | 0.00 | 0.00 | 36 | 1012.5 |
| 20260901212204 | 99 | 81 | 6.0 | 10.0 | 0.00 | 0.00 | 0.00 | 35 | 1012.4 |
| 20260901212105 | 100 | 80 | 6.0 | 10.0 | 0.00 | 0.00 | 0.00 | 35 | 1012.4 |
| 20260901212004 | 100 | 79 | 5.0 | 10.0 | 0.00 | 0.00 | 0.00 | 36 | 1012.5 |
| 20260901211905 | 100 | 75 | 5.0 | 10.0 | 0.00 | 0.00 | 0.00 | 36 | 1012.5 |
| 20260901211804 | 100 | 74 | 5.0 | 10.0 | 0.00 | 0.00 | 0.00 | 36 | 1012.5 |
| 20260901211705 | 101 | 73 | 6.0 | 10.0 | 0.00 | 0.00 | 0.00 | 35 | 1012.6 |
| 20260901211604 | 101 | 71 | 5.0 | 11.0 | 0.00 | 0.00 | 0.00 | 36 | 1012.6 |
| 20260901211505 | 101 | 71 | 5.0 | 11.0 | 0.00 | 0.00 | 0.00 | 36 | 1012.5 |
| 20260901211404 | 101 | 68 | 5.0 | 11.0 | 0.00 | 0.00 | 0.00 | 36 | 1012.6 |
| 20260901211305 | 101 | 68 | 5.0 | 11.0 | 0.00 | 0.00 | 0.00 | 37 | 1012.5 |
| 20260901211205 | 101 | 70 | 5.0 | 11.0 | 0.00 | 0.00 | 0.00 | 37 | 1012.6 |
| 20260901211105 | 101 | 79 | 5.0 | 11.0 | 0.00 | 0.00 | 0.00 | 36 | 1012.6 |
| 20260901210905 | 100 | 96 | 5.0 | 11.0 | 0.00 | 0.00 | 0.00 | 37 | 1012.6 |
| 20260901210804 | 100 | 99 | 5.0 | 11.0 | 0.00 | 0.00 | 0.00 | 36 | 1012.7 |
| 20260901210706 | 100 | 102 | 5.0 | 11.0 | 0.00 | 0.00 | 0.00 | 37 | 1012.7 |
| 20260901210604 | 100 | 111 | 5.0 | 11.0 | 0.00 | 0.00 | 0.00 | 37 | 1012.7 |
| 20260901210405 | 100 | 112 | 6.0 | 12.0 | 0.00 | 0.00 | 0.00 | 37 | 1012.8 |
| 20260901210206 | 100 | 106 | 7.0 | 14.0 | 0.00 | 0.00 | 0.00 | 37 | 1012.8 |
| 20260901210105 | 100 | 103 | 7.0 | 14.0 | 0.00 | 0.00 | 0.00 | 38 | 1012.8 |
| 20260901210004 | 99 | 100 | 6.0 | 14.0 | 0.00 | 0.00 | 0.00 | 38 | 1012.7 |
| 20260901205904 | 99 | 101 | 7.0 | 14.0 | 0.00 | 0.00 | 0.00 | 38 | 1012.8 |
| 20260901205804 | 99 | 103 | 7.0 | 14.0 | 0.00 | 0.00 | 0.00 | 38 | 1012.9 |
| 20260901205706 | 99 | 106 | 6.0 | 14.0 | 0.00 | 0.00 | 0.00 | 38 | 1012.9 |
| 20260901205604 | 99 | 104 | 6.0 | 14.0 | 0.00 | 0.00 | 0.00 | 38 | 1012.9 |
| 20260901205505 | 99 | 102 | 6.0 | 14.0 | 0.00 | 0.00 | 0.00 | 38 | 1012.9 |
| 20260901205405 | 99 | 100 | 6.0 | 14.0 | 0.00 | 0.00 | 0.00 | 38 | 1012.9 |
| 20260901205204 | 99 | 101 | 5.0 | 14.0 | 0.00 | 0.00 | 0.00 | 38 | 1012.9 |
| 20260901205105 | 99 | 101 | 5.0 | 14.0 | 0.00 | 0.00 | 0.00 | 39 | 1012.8 |
| 20260901205004 | 99 | 102 | 5.0 | 10.0 | 0.00 | 0.00 | 0.00 | 38 | 1012.9 |
| 20260901204905 | 99 | 99 | 5.0 | 10.0 | 0.00 | 0.00 | 0.00 | 38 | 1012.9 |
| 20260901204805 | 99 | 97 | 5.0 | 11.0 | 0.00 | 0.00 | 0.00 | 36 | 1013.0 |
| 20260901204704 | 99 | 97 | 6.0 | 11.0 | 0.00 | 0.00 | 0.00 | 36 | 1013.0 |
| 20260901204505 | 99 | 104 | 6.0 | 11.0 | 0.00 | 0.00 | 0.00 | 36 | 1013.0 |
| 20260901204304 | 99 | 119 | 5.0 | 12.0 | 0.00 | 0.00 | 0.00 | 38 | 1013.0 |
| 20260901204205 | 99 | 125 | 6.0 | 12.0 | 0.00 | 0.00 | 0.00 | 37 | 1013.0 |
| 20260901204104 | 99 | 128 | 6.0 | 12.0 | 0.00 | 0.00 | 0.00 | 37 | 1013.0 |
| 20260901204005 | 99 | 128 | 6.0 | 12.0 | 0.00 | 0.00 | 0.00 | 37 | 1013.1 |
| 20260901203804 | 100 | 127 | 6.0 | 13.0 | 0.00 | 0.00 | 0.00 | 36 | 1013.0 |
| 20260901203705 | 100 | 127 | 6.0 | 13.0 | 0.00 | 0.00 | 0.00 | 37 | 1013.1 |
| 20260901203604 | 100 | 124 | 6.0 | 13.0 | 0.00 | 0.00 | 0.00 | 37 | 1013.1 |
| 20260901203505 | 100 | 121 | 5.0 | 13.0 | 0.00 | 0.00 | 0.00 | 37 | 1013.1 |
| 20260901203404 | 100 | 112 | 6.0 | 13.0 | 0.00 | 0.00 | 0.00 | 37 | 1013.1 |
| 20260901203204 | 100 | 96 | 5.0 | 13.0 | 0.00 | 0.00 | 0.00 | 37 | 1013.1 |
| 20260901203004 | 99 | 82 | 6.0 | 13.0 | 0.00 | 0.00 | 0.00 | 39 | 1013.2 |
| 20260901202804 | 99 | 74 | 6.0 | 12.0 | 0.00 | 0.00 | 0.00 | 39 | 1013.2 |
| 20260901202605 | 99 | 74 | 7.0 | 13.0 | 0.00 | 0.00 | 0.00 | 36 | 1013.2 |
| 20260901202505 | 99 | 77 | 7.0 | 13.0 | 0.00 | 0.00 | 0.00 | 36 | 1013.2 |
| 20260901202404 | 100 | 79 | 7.0 | 13.0 | 0.00 | 0.00 | 0.00 | 36 | 1013.2 |
| 20260901202204 | 100 | 85 | 6.0 | 13.0 | 0.00 | 0.00 | 0.00 | 36 | 1013.3 |
| 20260901202104 | 100 | 90 | 6.0 | 13.0 | 0.00 | 0.00 | 0.00 | 37 | 1013.3 |
| 20260901202005 | 100 | 94 | 5.0 | 13.0 | 0.00 | 0.00 | 0.00 | 37 | 1013.3 |
| 20260901201904 | 100 | 100 | 5.0 | 13.0 | 0.00 | 0.00 | 0.00 | 37 | 1013.3 |
| 20260901201805 | 100 | 111 | 5.0 | 13.0 | 0.00 | 0.00 | 0.00 | 37 | 1013.3 |
| 20260901201705 | 99 | 124 | 4.0 | 13.0 | 0.00 | 0.00 | 0.00 | 39 | 1013.3 |
| 20260901201604 | 99 | 134 | 4.0 | 13.0 | 0.00 | 0.00 | 0.00 | 39 | 1013.4 |
| 20260901201505 | 99 | 140 | 5.0 | 13.0 | 0.00 | 0.00 | 0.00 | 39 | 1013.4 |
| 20260901201404 | 98 | 133 | 5.0 | 13.0 | 0.00 | 0.00 | 0.00 | 38 | 1013.4 |
| 20260901201305 | 98 | 124 | 6.0 | 13.0 | 0.00 | 0.00 | 0.00 | 38 | 1013.4 |
| 20260901201204 | 99 | 113 | 6.0 | 13.0 | 0.00 | 0.00 | 0.00 | 39 | 1013.5 |
| 20260901201105 | 99 | 105 | 6.0 | 13.0 | 0.00 | 0.00 | 0.00 | 39 | 1013.5 |
| 20260901201004 | 99 | 106 | 6.0 | 13.0 | 0.00 | 0.00 | 0.00 | 39 | 1013.5 |
| 20260901200905 | 99 | 109 | 6.0 | 13.0 | 0.00 | 0.00 | 0.00 | 38 | 1013.5 |
| 20260901200705 | 99 | 107 | 6.0 | 11.0 | 0.00 | 0.00 | 0.00 | 39 | 1013.5 |
| 20260901200505 | 99 | 106 | 5.0 | 11.0 | 0.00 | 0.00 | 0.00 | 39 | 1013.5 |
| 20260901200404 | 99 | 107 | 5.0 | 11.0 | 0.00 | 0.00 | 0.00 | 38 | 1013.6 |
| 20260901200305 | 99 | 115 | 5.0 | 11.0 | 0.00 | 0.00 | 0.00 | 39 | 1013.6 |
| 20260901200104 | 99 | 130 | 5.0 | 11.0 | 0.00 | 0.00 | 0.00 | 38 | 1013.6 |
| 20260901200004 | 99 | 129 | 5.0 | 11.0 | 0.00 | 0.00 | 0.00 | 38 | 1013.6 |
| 20260901195904 | 100 | 128 | 5.0 | 11.0 | 0.00 | 0.00 | 0.00 | 38 | 1013.6 |
| 20260901195705 | 100 | 139 | 5.0 | 10.0 | 0.00 | 0.00 | 0.00 | 39 | 1013.6 |
| 20260901195604 | 100 | 143 | 5.0 | 10.0 | 0.00 | 0.00 | 0.00 | 38 | 1013.6 |
| 20260901195505 | 100 | 148 | 5.0 | 12.0 | 0.00 | 0.00 | 0.00 | 38 | 1013.6 |
| 20260901195404 | 100 | 148 | 5.0 | 12.0 | 0.00 | 0.00 | 0.00 | 38 | 1013.6 |
| 20260901195306 | 100 | 148 | 5.0 | 12.0 | 0.00 | 0.00 | 0.00 | 38 | 1013.6 |
| 20260901195204 | 100 | 143 | 5.0 | 12.0 | 0.00 | 0.00 | 0.00 | 39 | 1013.7 |
| 20260901195105 | 100 | 138 | 5.0 | 12.0 | 0.00 | 0.00 | 0.00 | 40 | 1013.6 |
| 20260901195004 | 99 | 136 | 5.0 | 12.0 | 0.00 | 0.00 | 0.00 | 39 | 1013.7 |
| 20260901194904 | 99 | 132 | 5.0 | 12.0 | 0.00 | 0.00 | 0.00 | 39 | 1013.7 |
| 20260901194705 | 98 | 110 | 5.0 | 12.0 | 0.00 | 0.00 | 0.00 | 39 | 1013.8 |
| 20260901194604 | 98 | 100 | 5.0 | 12.0 | 0.00 | 0.00 | 0.00 | 41 | 1013.8 |
| 20260901194404 | 98 | 78 | 5.0 | 11.0 | 0.00 | 0.00 | 0.00 | 39 | 1013.8 |
| 20260901194304 | 98 | 79 | 5.0 | 11.0 | 0.00 | 0.00 | 0.00 | 40 | 1013.9 |
| 20260901194205 | 97 | 78 | 5.0 | 11.0 | 0.00 | 0.00 | 0.00 | 41 | 1013.9 |
| 20260901194104 | 97 | 76 | 5.0 | 11.0 | 0.00 | 0.00 | 0.00 | 41 | 1013.8 |
| 20260901194005 | 98 | 78 | 5.0 | 10.0 | 0.00 | 0.00 | 0.00 | 40 | 1013.9 |
| 20260901193905 | 98 | 79 | 5.0 | 10.0 | 0.00 | 0.00 | 0.00 | 39 | 1013.9 |
| 20260901193805 | 99 | 78 | 5.0 | 10.0 | 0.00 | 0.00 | 0.00 | 39 | 1013.9 |
| 20260901193704 | 99 | 78 | 6.0 | 10.0 | 0.00 | 0.00 | 0.00 | 40 | 1013.9 |
| 20260901193605 | 99 | 77 | 6.0 | 11.0 | 0.00 | 0.00 | 0.00 | 40 | 1013.9 |
| 20260901193504 | 99 | 77 | 6.0 | 13.0 | 0.00 | 0.00 | 0.00 | 40 | 1013.9 |
| 20260901193405 | 98 | 83 | 6.0 | 13.0 | 0.00 | 0.00 | 0.00 | 40 | 1013.9 |
| 20260901193304 | 99 | 81 | 6.0 | 13.0 | 0.00 | 0.00 | 0.00 | 40 | 1013.9 |
| 20260901193204 | 99 | 79 | 6.0 | 13.0 | 0.00 | 0.00 | 0.00 | 41 | 1014.0 |
| 20260901193004 | 98 | 72 | 6.0 | 13.0 | 0.00 | 0.00 | 0.00 | 41 | 1014.0 |
| 20260901192905 | 98 | 71 | 6.0 | 13.0 | 0.00 | 0.00 | 0.00 | 40 | 1014.0 |
| 20260901192805 | 98 | 68 | 6.0 | 13.0 | 0.00 | 0.00 | 0.00 | 40 | 1014.0 |
| 20260901192704 | 98 | 69 | 5.0 | 13.0 | 0.00 | 0.00 | 0.00 | 40 | 1014.0 |
| 20260901192604 | 98 | 68 | 5.0 | 13.0 | 0.00 | 0.00 | 0.00 | 41 | 1014.0 |
| 20260901192504 | 98 | 69 | 4.0 | 11.0 | 0.00 | 0.00 | 0.00 | 40 | 1014.0 |
| 20260901192405 | 99 | 67 | 4.0 | 11.0 | 0.00 | 0.00 | 0.00 | 39 | 1014.0 |
| 20260901192306 | 99 | 66 | 4.0 | 11.0 | 0.00 | 0.00 | 0.00 | 39 | 1014.0 |
| 20260901192205 | 99 | 69 | 4.0 | 10.0 | 0.00 | 0.00 | 0.00 | 39 | 1014.1 |
| 20260901192104 | 99 | 81 | 3.0 | 10.0 | 0.00 | 0.00 | 0.00 | 40 | 1014.0 |
| 20260901191905 | 99 | 127 | 3.0 | 10.0 | 0.00 | 0.00 | 0.00 | 39 | 1014.1 |
| 20260901191705 | 99 | 156 | 3.0 | 8.0 | 0.00 | 0.00 | 0.00 | 40 | 1014.2 |
| 20260901191604 | 99 | 159 | 3.0 | 7.0 | 0.00 | 0.00 | 0.00 | 40 | 1014.2 |
| 20260901191505 | 98 | 158 | 4.0 | 11.0 | 0.00 | 0.00 | 0.00 | 40 | 1014.2 |
| 20260901191404 | 98 | 147 | 4.0 | 11.0 | 0.00 | 0.00 | 0.00 | 40 | 1014.2 |
| 20260901191305 | 99 | 133 | 4.0 | 13.0 | 0.00 | 0.00 | 0.00 | 39 | 1014.2 |
| 20260901191204 | 99 | 128 | 4.0 | 13.0 | 0.00 | 0.00 | 0.00 | 41 | 1014.2 |
| 20260901191105 | 98 | 123 | 5.0 | 13.0 | 0.00 | 0.00 | 0.00 | 41 | 1014.2 |
| 20260901191005 | 98 | 119 | 5.0 | 13.0 | 0.00 | 0.00 | 0.00 | 40 | 1014.2 |
| 20260901190804 | 98 | 111 | 6.0 | 13.0 | 0.00 | 0.00 | 0.00 | 41 | 1014.3 |
| 20260901190705 | 98 | 107 | 7.0 | 13.0 | 0.00 | 0.00 | 0.00 | 40 | 1014.3 |
| 20260901190604 | 98 | 105 | 6.0 | 13.0 | 0.00 | 0.00 | 0.00 | 40 | 1014.3 |
| 20260901190504 | 98 | 100 | 6.0 | 13.0 | 0.00 | 0.00 | 0.00 | 40 | 1014.3 |
| 20260901190404 | 98 | 99 | 6.0 | 13.0 | 0.00 | 0.00 | 0.00 | 40 | 1014.3 |
| 20260901190205 | 98 | 90 | 6.0 | 13.0 | 0.00 | 0.00 | 0.00 | 40 | 1014.4 |
| 20260901190104 | 99 | 89 | 6.0 | 13.0 | 0.00 | 0.00 | 0.00 | 40 | 1014.3 |
| 20260901190005 | 99 | 87 | 5.0 | 13.0 | 0.00 | 0.00 | 0.00 | 40 | 1014.4 |
| 20260901185904 | 99 | 86 | 4.0 | 13.0 | 0.00 | 0.00 | 0.00 | 41 | 1014.4 |
| 20260901185804 | 99 | 84 | 4.0 | 12.0 | 0.00 | 0.00 | 0.00 | 41 | 1014.4 |
| 20260901185704 | 99 | 84 | 4.0 | 9.0 | 0.00 | 0.00 | 0.00 | 42 | 1014.4 |
| 20260901185604 | 98 | 83 | 4.0 | 9.0 | 0.00 | 0.00 | 0.00 | 41 | 1014.4 |
| 20260901185505 | 99 | 90 | 4.0 | 9.0 | 0.00 | 0.00 | 0.00 | 41 | 1014.4 |
| 20260901185404 | 99 | 95 | 4.0 | 10.0 | 0.00 | 0.00 | 0.00 | 41 | 1014.4 |
| 20260901185306 | 98 | 106 | 4.0 | 10.0 | 0.00 | 0.00 | 0.00 | 41 | 1014.4 |
| 20260901185204 | 98 | 115 | 5.0 | 10.0 | 0.00 | 0.00 | 0.00 | 42 | 1014.5 |
| 20260901185105 | 98 | 125 | 4.0 | 10.0 | 0.00 | 0.00 | 0.00 | 42 | 1014.5 |
| 20260901185004 | 97 | 129 | 4.0 | 10.0 | 0.00 | 0.00 | 0.00 | 43 | 1014.5 |
| 20260901184904 | 97 | 135 | 4.0 | 10.0 | 0.00 | 0.00 | 0.00 | 43 | 1014.5 |
| 20260901184804 | 97 | 140 | 4.0 | 10.0 | 0.00 | 0.00 | 0.00 | 41 | 1014.6 |
| 20260901184705 | 97 | 144 | 4.0 | 10.0 | 0.00 | 0.00 | 0.00 | 42 | 1014.6 |
| 20260901184604 | 98 | 145 | 4.0 | 10.0 | 0.00 | 0.00 | 0.00 | 40 | 1014.6 |
| 20260901184404 | 97 | 138 | 4.0 | 12.0 | 0.00 | 0.00 | 0.00 | 42 | 1014.6 |
| 20260901184304 | 97 | 133 | 5.0 | 12.0 | 0.00 | 0.00 | 0.00 | 42 | 1014.7 |
| 20260901184204 | 97 | 125 | 4.0 | 12.0 | 0.00 | 0.00 | 0.00 | 42 | 1014.7 |
| 20260901184104 | 96 | 112 | 5.0 | 12.0 | 0.00 | 0.00 | 0.00 | 42 | 1014.7 |
| 20260901184004 | 96 | 107 | 5.0 | 12.0 | 0.00 | 0.00 | 0.00 | 42 | 1014.7 |
| 20260901183905 | 96 | 104 | 5.0 | 12.0 | 0.00 | 0.00 | 0.00 | 42 | 1014.7 |
| 20260901183804 | 97 | 98 | 5.0 | 12.0 | 0.00 | 0.00 | 0.00 | 41 | 1014.7 |
| 20260901183705 | 97 | 94 | 5.0 | 12.0 | 0.00 | 0.00 | 0.00 | 41 | 1014.8 |
| 20260901183604 | 97 | 92 | 5.0 | 12.0 | 0.00 | 0.00 | 0.00 | 41 | 1014.8 |
| 20260901183505 | 98 | 91 | 5.0 | 12.0 | 0.00 | 0.00 | 0.00 | 42 | 1014.8 |
| 20260901183204 | 98 | 90 | 4.0 | 11.0 | 0.00 | 0.00 | 0.00 | 42 | 1014.8 |
| 20260901182905 | 98 | 99 | 5.0 | 11.0 | 0.00 | 0.00 | 0.00 | 41 | 1014.9 |
| 20260901182804 | 98 | 102 | 5.0 | 11.0 | 0.00 | 0.00 | 0.00 | 41 | 1014.9 |
| 20260901182705 | 98 | 100 | 5.0 | 11.0 | 0.00 | 0.00 | 0.00 | 41 | 1014.9 |
| 20260901182505 | 98 | 87 | 5.0 | 11.0 | 0.00 | 0.00 | 0.00 | 42 | 1015.0 |
| 20260901182305 | 97 | 80 | 5.0 | 12.0 | 0.00 | 0.00 | 0.00 | 42 | 1015.0 |
| 20260901182204 | 97 | 77 | 5.0 | 12.0 | 0.00 | 0.00 | 0.00 | 43 | 1015.0 |
| 20260901182004 | 97 | 71 | 4.0 | 12.0 | 0.00 | 0.00 | 0.00 | 43 | 1015.0 |
| 20260901181904 | 96 | 64 | 4.0 | 12.0 | 0.00 | 0.00 | 0.00 | 44 | 1015.0 |
| 20260901181805 | 96 | 56 | 4.0 | 12.0 | 0.00 | 0.00 | 0.00 | 43 | 1015.1 |
| 20260901181704 | 96 | 60 | 4.0 | 12.0 | 0.00 | 0.00 | 0.00 | 43 | 1015.1 |
| 20260901181604 | 96 | 72 | 4.0 | 12.0 | 0.00 | 0.00 | 0.00 | 44 | 1015.1 |
| 20260901181505 | 96 | 87 | 4.0 | 12.0 | 0.00 | 0.00 | 0.00 | 45 | 1015.1 |
| 20260901181404 | 96 | 84 | 4.0 | 12.0 | 0.00 | 0.00 | 0.00 | 45 | 1015.1 |
| 20260901181304 | 96 | 92 | 4.0 | 11.0 | 0.00 | 0.00 | 0.00 | 45 | 1015.1 |
| 20260901181204 | 95 | 96 | 4.0 | 11.0 | 0.00 | 0.00 | 0.00 | 46 | 1015.1 |
| 20260901181104 | 94 | 96 | 4.0 | 11.0 | 0.00 | 0.00 | 0.00 | 45 | 1015.1 |
| 20260901180905 | 95 | 90 | 5.0 | 11.0 | 0.00 | 0.00 | 0.00 | 44 | 1015.2 |
| 20260901180804 | 96 | 87 | 5.0 | 11.0 | 0.00 | 0.00 | 0.00 | 44 | 1015.2 |
| 20260901180705 | 96 | 82 | 5.0 | 11.0 | 0.00 | 0.00 | 0.00 | 44 | 1015.2 |
| 20260901180604 | 96 | 79 | 5.0 | 11.0 | 0.00 | 0.00 | 0.00 | 45 | 1015.2 |
| 20260901180304 | 94 | 77 | 4.0 | 11.0 | 0.00 | 0.00 | 0.00 | 45 | 1015.2 |
| 20260901180204 | 94 | 81 | 4.0 | 11.0 | 0.00 | 0.00 | 0.00 | 45 | 1015.2 |
| 20260901180104 | 95 | 81 | 4.0 | 11.0 | 0.00 | 0.00 | 0.00 | 45 | 1015.2 |
| 20260901180005 | 95 | 79 | 5.0 | 11.0 | 0.00 | 0.00 | 0.00 | 44 | 1015.3 |
| 20260901175904 | 95 | 83 | 5.0 | 11.0 | 0.00 | 0.00 | 0.00 | 43 | 1015.4 |
| 20260901175804 | 96 | 86 | 5.0 | 11.0 | 0.00 | 0.00 | 0.00 | 45 | 1015.3 |
| 20260901175704 | 96 | 90 | 5.0 | 11.0 | 0.00 | 0.00 | 0.00 | 45 | 1015.4 |
| 20260901175604 | 95 | 96 | 5.0 | 12.0 | 0.00 | 0.00 | 0.00 | 45 | 1015.4 |
| 20260901175404 | 96 | 107 | 6.0 | 15.0 | 0.00 | 0.00 | 0.00 | 45 | 1015.5 |
| 20260901175305 | 96 | 104 | 7.0 | 15.0 | 0.00 | 0.00 | 0.00 | 45 | 1015.4 |
| 20260901175105 | 96 | 102 | 7.0 | 15.0 | 0.00 | 0.00 | 0.00 | 44 | 1015.5 |
| 20260901174905 | 96 | 108 | 6.0 | 15.0 | 0.00 | 0.00 | 0.00 | 46 | 1015.5 |
| 20260901174804 | 96 | 112 | 6.0 | 15.0 | 0.00 | 0.00 | 0.00 | 47 | 1015.5 |
| 20260901174705 | 96 | 113 | 6.0 | 15.0 | 0.00 | 0.00 | 0.00 | 45 | 1015.5 |
| 20260901174604 | 96 | 110 | 5.0 | 15.0 | 0.00 | 0.00 | 0.00 | 45 | 1015.5 |
| 20260901174504 | 96 | 107 | 5.0 | 15.0 | 0.00 | 0.00 | 0.00 | 45 | 1015.6 |
| 20260901174404 | 96 | 101 | 4.0 | 15.0 | 0.00 | 0.00 | 0.00 | 45 | 1015.5 |
| 20260901174304 | 95 | 101 | 4.0 | 10.0 | 0.00 | 0.00 | 0.00 | 45 | 1015.6 |
| 20260901174204 | 95 | 97 | 4.0 | 10.0 | 0.00 | 0.00 | 0.00 | 46 | 1015.6 |
| 20260901174105 | 95 | 96 | 4.0 | 10.0 | 0.00 | 0.00 | 0.00 | 47 | 1015.6 |
| 20260901173904 | 94 | 82 | 4.0 | 8.0 | 0.00 | 0.00 | 0.00 | 48 | 1015.6 |
| 20260901173804 | 94 | 79 | 4.0 | 8.0 | 0.00 | 0.00 | 0.00 | 47 | 1015.6 |
| 20260901173705 | 94 | 74 | 4.0 | 8.0 | 0.00 | 0.00 | 0.00 | 49 | 1015.7 |
| 20260901173404 | 94 | 76 | 5.0 | 8.0 | 0.00 | 0.00 | 0.00 | 47 | 1015.7 |
| 20260901173304 | 94 | 77 | 5.0 | 8.0 | 0.00 | 0.00 | 0.00 | 46 | 1015.7 |
| 20260901173204 | 94 | 78 | 5.0 | 10.0 | 0.00 | 0.00 | 0.00 | 46 | 1015.6 |
| 20260901173105 | 95 | 83 | 5.0 | 10.0 | 0.00 | 0.00 | 0.00 | 46 | 1015.7 |
| 20260901173004 | 95 | 88 | 5.0 | 10.0 | 0.00 | 0.00 | 0.00 | 44 | 1015.7 |
| 20260901172905 | 95 | 92 | 5.0 | 10.0 | 0.00 | 0.00 | 0.00 | 44 | 1015.7 |
| 20260901172804 | 95 | 97 | 5.0 | 10.0 | 0.00 | 0.00 | 0.00 | 44 | 1015.7 |
| 20260901172704 | 96 | 101 | 5.0 | 10.0 | 0.00 | 0.00 | 0.00 | 44 | 1015.7 |
| 20260901172605 | 96 | 105 | 5.0 | 10.0 | 0.00 | 0.00 | 0.00 | 45 | 1015.7 |
| 20260901172504 | 96 | 107 | 4.0 | 10.0 | 0.00 | 0.00 | 0.00 | 44 | 1015.7 |
| 20260901172404 | 96 | 111 | 4.0 | 10.0 | 0.00 | 0.00 | 0.00 | 45 | 1015.7 |
| 20260901172305 | 96 | 118 | 4.0 | 10.0 | 0.00 | 0.00 | 0.00 | 45 | 1015.7 |
| 20260901172203 | 95 | 139 | 4.0 | 9.0 | 0.00 | 0.00 | 0.00 | 45 | 1015.8 |
| 20260901172104 | 95 | 156 | 4.0 | 9.0 | 0.00 | 0.00 | 0.00 | 45 | 1015.8 |
| 20260901172004 | 95 | 165 | 4.0 | 9.0 | 0.00 | 0.00 | 0.00 | 45 | 1015.8 |
| 20260901171904 | 95 | 182 | 4.0 | 9.0 | 0.00 | 0.00 | 0.00 | 46 | 1015.8 |
| 20260901171804 | 95 | 190 | 4.0 | 9.0 | 0.00 | 0.00 | 0.00 | 46 | 1015.8 |
| 20260901171704 | 95 | 196 | 4.0 | 9.0 | 0.00 | 0.00 | 0.00 | 46 | 1015.8 |
| 20260901171404 | 95 | 197 | 3.0 | 9.0 | 0.00 | 0.00 | 0.00 | 46 | 1015.9 |
| 20260901171304 | 95 | 193 | 3.0 | 9.0 | 0.00 | 0.00 | 0.00 | 46 | 1015.9 |
| 20260901171204 | 95 | 183 | 3.0 | 9.0 | 0.00 | 0.00 | 0.00 | 47 | 1015.9 |
| 20260901171004 | 95 | 173 | 2.0 | 9.0 | 0.00 | 0.00 | 0.00 | 46 | 1015.9 |
| 20260901170804 | 95 | 159 | 2.0 | 7.0 | 0.00 | 0.00 | 0.00 | 46 | 1016.0 |
| 20260901170704 | 95 | 148 | 2.0 | 7.0 | 0.00 | 0.00 | 0.00 | 47 | 1016.1 |
| 20260901170605 | 95 | 130 | 3.0 | 7.0 | 0.00 | 0.00 | 0.00 | 47 | 1016.1 |
| 20260901170505 | 95 | 114 | 3.0 | 9.0 | 0.00 | 0.00 | 0.00 | 47 | 1016.0 |
| 20260901170404 | 95 | 109 | 3.0 | 9.0 | 0.00 | 0.00 | 0.00 | 47 | 1016.1 |
| 20260901170304 | 95 | 107 | 3.0 | 9.0 | 0.00 | 0.00 | 0.00 | 47 | 1016.0 |
| 20260901170204 | 94 | 110 | 3.0 | 9.0 | 0.00 | 0.00 | 0.00 | 47 | 1016.0 |
| 20260901170004 | 94 | 98 | 4.0 | 9.0 | 0.00 | 0.00 | 0.00 | 47 | 1016.2 |
| 20260901165904 | 94 | 94 | 4.0 | 9.0 | 0.00 | 0.00 | 0.00 | 47 | 1016.2 |
| 20260901165804 | 95 | 90 | 4.0 | 9.0 | 0.00 | 0.00 | 0.00 | 47 | 1016.2 |
| 20260901165705 | 94 | 89 | 3.0 | 9.0 | 0.00 | 0.00 | 0.00 | 48 | 1016.2 |
| 20260901165604 | 94 | 87 | 3.0 | 9.0 | 0.00 | 0.00 | 0.00 | 48 | 1016.1 |
| 20260901165505 | 94 | 85 | 3.0 | 9.0 | 0.00 | 0.00 | 0.00 | 48 | 1016.1 |
| 20260901165404 | 93 | 85 | 4.0 | 10.0 | 0.00 | 0.00 | 0.00 | 49 | 1016.1 |
| 20260901165204 | 94 | 92 | 4.0 | 10.0 | 0.00 | 0.00 | 0.00 | 48 | 1016.1 |
| 20260901165105 | 94 | 93 | 5.0 | 10.0 | 0.00 | 0.00 | 0.00 | 48 | 1016.1 |
| 20260901165004 | 94 | 92 | 5.0 | 10.0 | 0.00 | 0.00 | 0.00 | 50 | 1016.2 |
| 20260901164804 | 93 | 85 | 5.0 | 10.0 | 0.00 | 0.00 | 0.00 | 49 | 1016.1 |
| 20260901164705 | 94 | 83 | 5.0 | 10.0 | 0.00 | 0.00 | 0.00 | 49 | 1016.1 |
| 20260901164604 | 94 | 84 | 5.0 | 10.0 | 0.00 | 0.00 | 0.00 | 48 | 1016.1 |
| 20260901164504 | 94 | 84 | 5.0 | 10.0 | 0.00 | 0.00 | 0.00 | 49 | 1016.2 |
| 20260901164404 | 94 | 88 | 5.0 | 11.0 | 0.00 | 0.00 | 0.00 | 49 | 1016.1 |
| 20260901164004 | 94 | 97 | 4.0 | 11.0 | 0.00 | 0.00 | 0.00 | 48 | 1016.2 |
| 20260901163804 | 94 | 97 | 4.0 | 11.0 | 0.00 | 0.00 | 0.00 | 49 | 1016.3 |
| 20260901163704 | 94 | 93 | 4.0 | 11.0 | 0.00 | 0.00 | 0.00 | 50 | 1016.3 |
| 20260901163604 | 94 | 92 | 4.0 | 11.0 | 0.00 | 0.00 | 0.00 | 49 | 1016.3 |
| 20260901163504 | 94 | 97 | 4.0 | 11.0 | 0.00 | 0.00 | 0.00 | 49 | 1016.3 |
| 20260901163304 | 93 | 90 | 4.0 | 9.0 | 0.00 | 0.00 | 0.00 | 49 | 1016.2 |
| 20260901163204 | 93 | 85 | 4.0 | 9.0 | 0.00 | 0.00 | 0.00 | 50 | 1016.2 |
| 20260901163105 | 92 | 87 | 4.0 | 10.0 | 0.00 | 0.00 | 0.00 | 50 | 1016.3 |
| 20260901163004 | 92 | 95 | 5.0 | 10.0 | 0.00 | 0.00 | 0.00 | 49 | 1016.3 |
| 20260901162904 | 92 | 100 | 5.0 | 10.0 | 0.00 | 0.00 | 0.00 | 50 | 1016.3 |
| 20260901162804 | 92 | 104 | 5.0 | 10.0 | 0.00 | 0.00 | 0.00 | 50 | 1016.4 |
| 20260901162704 | 92 | 108 | 5.0 | 10.0 | 0.00 | 0.00 | 0.00 | 50 | 1016.4 |
| 20260901162604 | 93 | 110 | 5.0 | 10.0 | 0.00 | 0.00 | 0.00 | 49 | 1016.4 |
| 20260901162505 | 93 | 107 | 5.0 | 10.0 | 0.00 | 0.00 | 0.00 | 50 | 1016.5 |
| 20260901162404 | 93 | 106 | 5.0 | 10.0 | 0.00 | 0.00 | 0.00 | 50 | 1016.5 |
| 20260901162306 | 93 | 107 | 5.0 | 10.0 | 0.00 | 0.00 | 0.00 | 50 | 1016.5 |
| 20260901162203 | 93 | 105 | 4.0 | 10.0 | 0.00 | 0.00 | 0.00 | 50 | 1016.5 |
| 20260901162104 | 92 | 105 | 5.0 | 10.0 | 0.00 | 0.00 | 0.00 | 50 | 1016.5 |
| 20260901162006 | 92 | 99 | 4.0 | 10.0 | 0.00 | 0.00 | 0.00 | 50 | 1016.5 |
| 20260901161805 | 92 | 94 | 4.0 | 10.0 | 0.00 | 0.00 | 0.00 | 50 | 1016.5 |
| 20260901161704 | 92 | 92 | 4.0 | 10.0 | 0.00 | 0.00 | 0.00 | 50 | 1016.5 |
| 20260901161504 | 92 | 92 | 3.0 | 9.0 | 0.00 | 0.00 | 0.00 | 51 | 1016.5 |
| 20260901161404 | 93 | 91 | 3.0 | 9.0 | 0.00 | 0.00 | 0.00 | 51 | 1016.6 |
| 20260901161305 | 93 | 86 | 4.0 | 9.0 | 0.00 | 0.00 | 0.00 | 51 | 1016.5 |
| 20260901161105 | 92 | 83 | 3.0 | 9.0 | 0.00 | 0.00 | 0.00 | 51 | 1016.6 |
| 20260901161004 | 92 | 87 | 3.0 | 9.0 | 0.00 | 0.00 | 0.00 | 51 | 1016.5 |
| 20260901160905 | 92 | 94 | 3.0 | 9.0 | 0.00 | 0.00 | 0.00 | 53 | 1016.5 |
| 20260901160804 | 91 | 106 | 3.0 | 8.0 | 0.00 | 0.00 | 0.00 | 53 | 1016.5 |
| 20260901160704 | 91 | 110 | 3.0 | 8.0 | 0.00 | 0.00 | 0.00 | 53 | 1016.5 |
| 20260901160604 | 91 | 112 | 3.0 | 8.0 | 0.00 | 0.00 | 0.00 | 53 | 1016.5 |
| 20260901160505 | 91 | 120 | 3.0 | 8.0 | 0.00 | 0.00 | 0.00 | 51 | 1016.5 |
| 20260901160404 | 91 | 126 | 3.0 | 8.0 | 0.00 | 0.00 | 0.00 | 52 | 1016.5 |
| 20260901160304 | 92 | 137 | 3.0 | 7.0 | 0.00 | 0.00 | 0.00 | 52 | 1016.6 |
| 20260901160104 | 92 | 139 | 3.0 | 7.0 | 0.00 | 0.00 | 0.00 | 52 | 1016.6 |
| 20260901160005 | 91 | 139 | 3.0 | 8.0 | 0.00 | 0.00 | 0.00 | 52 | 1016.6 |
| 20260901155904 | 91 | 140 | 3.0 | 8.0 | 0.00 | 0.00 | 0.00 | 52 | 1016.6 |
| 20260901155804 | 91 | 139 | 3.0 | 8.0 | 0.00 | 0.00 | 0.00 | 52 | 1016.6 |
| 20260901155704 | 91 | 135 | 3.0 | 8.0 | 0.00 | 0.00 | 0.00 | 53 | 1016.7 |
| 20260901155604 | 91 | 126 | 3.0 | 8.0 | 0.00 | 0.00 | 0.00 | 53 | 1016.6 |
| 20260901155504 | 90 | 119 | 3.0 | 8.0 | 0.00 | 0.00 | 0.00 | 54 | 1016.7 |
| 20260901155404 | 90 | 117 | 3.0 | 8.0 | 0.00 | 0.00 | 0.00 | 52 | 1016.6 |
| 20260901155306 | 90 | 120 | 3.0 | 8.0 | 0.00 | 0.00 | 0.00 | 52 | 1016.6 |
| 20260901155205 | 91 | 117 | 3.0 | 8.0 | 0.00 | 0.00 | 0.00 | 52 | 1016.6 |
| 20260901155104 | 91 | 124 | 2.0 | 8.0 | 0.00 | 0.00 | 0.00 | 53 | 1016.5 |
| 20260901154904 | 90 | 114 | 2.0 | 6.0 | 0.00 | 0.00 | 0.00 | 54 | 1016.6 |
| 20260901154805 | 90 | 110 | 3.0 | 6.0 | 0.00 | 0.00 | 0.00 | 54 | 1016.5 |
| 20260901154704 | 90 | 111 | 2.0 | 6.0 | 0.00 | 0.00 | 0.00 | 54 | 1016.5 |
| 20260901154504 | 90 | 110 | 2.0 | 6.0 | 0.00 | 0.00 | 0.00 | 55 | 1016.5 |
| 20260901154405 | 90 | 109 | 2.0 | 6.0 | 0.00 | 0.00 | 0.00 | 54 | 1016.5 |
| 20260901154205 | 90 | 113 | 3.0 | 6.0 | 0.00 | 0.00 | 0.00 | 54 | 1016.5 |
| 20260901154104 | 90 | 113 | 3.0 | 6.0 | 0.00 | 0.00 | 0.00 | 54 | 1016.5 |
| 20260901153805 | 90 | 108 | 3.0 | 6.0 | 0.00 | 0.00 | 0.00 | 57 | 1016.6 |
| 20260901153604 | 90 | 118 | 3.0 | 6.0 | 0.00 | 0.00 | 0.00 | 56 | 1016.5 |
| 20260901153505 | 89 | 128 | 3.0 | 6.0 | 0.00 | 0.00 | 0.00 | 56 | 1016.4 |
| 20260901153404 | 89 | 136 | 3.0 | 6.0 | 0.00 | 0.00 | 0.00 | 56 | 1016.5 |
| 20260901153104 | 89 | 161 | 3.0 | 6.0 | 0.00 | 0.00 | 0.00 | 56 | 1016.4 |
| 20260901153005 | 89 | 171 | 3.0 | 6.0 | 0.00 | 0.00 | 0.00 | 56 | 1016.5 |
| 20260901152904 | 89 | 178 | 3.0 | 6.0 | 0.00 | 0.00 | 0.00 | 55 | 1016.4 |
| 20260901152805 | 89 | 189 | 2.0 | 6.0 | 0.00 | 0.00 | 0.00 | 54 | 1016.5 |
| 20260901152604 | 89 | 203 | 2.0 | 5.0 | 0.00 | 0.00 | 0.00 | 54 | 1016.5 |
| 20260901152404 | 89 | 211 | 2.0 | 5.0 | 0.00 | 0.00 | 0.00 | 55 | 1016.4 |
| 20260901152306 | 89 | 226 | 2.0 | 5.0 | 0.00 | 0.00 | 0.00 | 54 | 1016.4 |
| 20260901152104 | 89 | 269 | 2.0 | 6.0 | 0.00 | 0.00 | 0.00 | 58 | 1016.4 |
| 20260901152005 | 89 | 281 | 2.0 | 7.0 | 0.00 | 0.00 | 0.00 | 58 | 1016.4 |
| 20260901151904 | 89 | 281 | 2.0 | 7.0 | 0.00 | 0.00 | 0.00 | 58 | 1016.4 |
| 20260901151804 | 89 | 276 | 2.0 | 7.0 | 0.00 | 0.00 | 0.00 | 59 | 1016.5 |
| 20260901151704 | 88 | 272 | 2.0 | 7.0 | 0.00 | 0.00 | 0.00 | 59 | 1016.4 |
| 20260901151504 | 88 | 271 | 2.0 | 7.0 | 0.00 | 0.00 | 0.00 | 60 | 1016.4 |
| 20260901151404 | 88 | 273 | 2.0 | 7.0 | 0.00 | 0.00 | 0.00 | 60 | 1016.4 |
| 20260901151305 | 88 | 275 | 2.0 | 7.0 | 0.00 | 0.00 | 0.00 | 59 | 1016.4 |
| 20260901151204 | 88 | 271 | 2.0 | 7.0 | 0.00 | 0.00 | 0.00 | 59 | 1016.4 |
| 20260901151104 | 88 | 264 | 1.0 | 7.0 | 0.00 | 0.00 | 0.00 | 59 | 1016.4 |
| 20260901151004 | 87 | 254 | 1.0 | 4.0 | 0.00 | 0.00 | 0.00 | 59 | 1016.4 |
| 20260901150904 | 87 | 251 | 1.0 | 4.0 | 0.00 | 0.00 | 0.00 | 60 | 1016.5 |
| 20260901150804 | 87 | 249 | 1.0 | 4.0 | 0.00 | 0.00 | 0.00 | 60 | 1016.5 |
| 20260901150704 | 87 | 255 | 1.0 | 4.0 | 0.00 | 0.00 | 0.00 | 60 | 1016.5 |
| 20260901150604 | 86 | 263 | 2.0 | 4.0 | 0.00 | 0.00 | 0.00 | 62 | 1016.6 |
| 20260901150504 | 86 | 268 | 2.0 | 4.0 | 0.00 | 0.00 | 0.00 | 64 | 1016.6 |
| 20260901150404 | 85 | 271 | 2.0 | 4.0 | 0.00 | 0.00 | 0.00 | 64 | 1016.6 |
| 20260901150303 | 85 | 270 | 2.0 | 4.0 | 0.00 | 0.00 | 0.00 | 65 | 1016.6 |
| 20260901150205 | 85 | 271 | 2.0 | 4.0 | 0.00 | 0.00 | 0.00 | 64 | 1016.5 |
| 20260901150104 | 85 | 271 | 2.0 | 4.0 | 0.00 | 0.00 | 0.00 | 65 | 1016.5 |
| 20260901150004 | 85 | 270 | 2.0 | 4.0 | 0.00 | 0.00 | 0.00 | 65 | 1016.5 |
| 20260901145804 | 85 | 271 | 2.0 | 4.0 | 0.00 | 0.00 | 0.00 | 65 | 1016.6 |
| 20260901145604 | 85 | 284 | 2.0 | 4.0 | 0.00 | 0.00 | 0.00 | 65 | 1016.5 |
| 20260901145504 | 85 | 288 | 2.0 | 4.0 | 0.00 | 0.00 | 0.00 | 65 | 1016.6 |
| 20260901145404 | 85 | 288 | 2.0 | 4.0 | 0.00 | 0.00 | 0.00 | 65 | 1016.5 |
| 20260901145306 | 85 | 291 | 2.0 | 4.0 | 0.00 | 0.00 | 0.00 | 65 | 1016.6 |
| 20260901145204 | 85 | 290 | 2.0 | 4.0 | 0.00 | 0.00 | 0.00 | 65 | 1016.6 |
| 20260901145004 | 85 | 291 | 2.0 | 6.0 | 0.00 | 0.00 | 0.00 | 65 | 1016.6 |
| 20260901144903 | 85 | 294 | 2.0 | 6.0 | 0.00 | 0.00 | 0.00 | 65 | 1016.6 |
| 20260901144804 | 85 | 293 | 2.0 | 6.0 | 0.00 | 0.00 | 0.00 | 64 | 1016.6 |
| 20260901144704 | 85 | 290 | 3.0 | 6.0 | 0.00 | 0.00 | 0.00 | 65 | 1016.6 |
| 20260901144604 | 85 | 289 | 3.0 | 6.0 | 0.00 | 0.00 | 0.00 | 66 | 1016.6 |
| 20260901144503 | 85 | 288 | 3.0 | 6.0 | 0.00 | 0.00 | 0.00 | 66 | 1016.6 |
| 20260901144404 | 85 | 287 | 3.0 | 6.0 | 0.00 | 0.00 | 0.00 | 66 | 1016.6 |
| 20260901144304 | 86 | 286 | 3.0 | 6.0 | 0.00 | 0.00 | 0.00 | 66 | 1016.7 |
| 20260901144205 | 85 | 285 | 3.0 | 6.0 | 0.00 | 0.00 | 0.00 | 66 | 1016.6 |
| 20260901144104 | 85 | 285 | 3.0 | 6.0 | 0.00 | 0.00 | 0.00 | 65 | 1016.6 |
| 20260901144004 | 85 | 285 | 3.0 | 6.0 | 0.00 | 0.00 | 0.00 | 66 | 1016.6 |
| 20260901143904 | 85 | 285 | 3.0 | 6.0 | 0.00 | 0.00 | 0.00 | 66 | 1016.6 |
| 20260901143804 | 85 | 285 | 3.0 | 6.0 | 0.00 | 0.00 | 0.00 | 66 | 1016.6 |
| 20260901143704 | 85 | 281 | 3.0 | 5.0 | 0.00 | 0.00 | 0.00 | 66 | 1016.7 |
| 20260901143604 | 85 | 275 | 3.0 | 5.0 | 0.00 | 0.00 | 0.00 | 66 | 1016.6 |
| 20260901143504 | 85 | 271 | 3.0 | 5.0 | 0.00 | 0.00 | 0.00 | 66 | 1016.7 |
| 20260901143404 | 85 | 269 | 3.0 | 5.0 | 0.00 | 0.00 | 0.00 | 66 | 1016.7 |
| 20260901143304 | 85 | 266 | 3.0 | 5.0 | 0.00 | 0.00 | 0.00 | 67 | 1016.7 |
| 20260901143204 | 85 | 261 | 2.0 | 5.0 | 0.00 | 0.00 | 0.00 | 68 | 1016.8 |
| 20260901143103 | 84 | 256 | 2.0 | 5.0 | 0.00 | 0.00 | 0.00 | 68 | 1016.8 |
| 20260901143004 | 84 | 254 | 2.0 | 5.0 | 0.00 | 0.00 | 0.00 | 68 | 1016.8 |
| 20260901142904 | 84 | 247 | 2.0 | 5.0 | 0.00 | 0.00 | 0.00 | 68 | 1016.7 |
| 20260901142805 | 84 | 242 | 3.0 | 5.0 | 0.00 | 0.00 | 0.00 | 68 | 1016.8 |
| 20260901142704 | 84 | 246 | 3.0 | 5.0 | 0.00 | 0.00 | 0.00 | 68 | 1016.7 |
| 20260901142604 | 84 | 248 | 3.0 | 5.0 | 0.00 | 0.00 | 0.00 | 69 | 1016.7 |
| 20260901142504 | 84 | 252 | 3.0 | 5.0 | 0.00 | 0.00 | 0.00 | 68 | 1016.7 |
| 20260901142404 | 84 | 253 | 3.0 | 5.0 | 0.00 | 0.00 | 0.00 | 69 | 1016.7 |
| 20260901142204 | 84 | 255 | 3.0 | 8.0 | 0.00 | 0.00 | 0.00 | 68 | 1016.7 |
| 20260901142104 | 84 | 257 | 3.0 | 8.0 | 0.00 | 0.00 | 0.00 | 68 | 1016.7 |
| 20260901142005 | 84 | 253 | 3.0 | 8.0 | 0.00 | 0.00 | 0.00 | 69 | 1016.7 |
| 20260901141904 | 84 | 250 | 3.0 | 8.0 | 0.00 | 0.00 | 0.00 | 69 | 1016.7 |
| 20260901141804 | 84 | 248 | 3.0 | 8.0 | 0.00 | 0.00 | 0.00 | 68 | 1016.7 |
| 20260901141703 | 84 | 241 | 3.0 | 8.0 | 0.00 | 0.00 | 0.00 | 68 | 1016.8 |
| 20260901141604 | 84 | 236 | 3.0 | 8.0 | 0.00 | 0.00 | 0.00 | 68 | 1016.7 |
| 20260901141504 | 84 | 228 | 3.0 | 8.0 | 0.00 | 0.00 | 0.00 | 68 | 1016.8 |
| 20260901141407 | 84 | 226 | 3.0 | 8.0 | 0.00 | 0.00 | 0.00 | 68 | 1016.8 |
| 20260901141304 | 84 | 228 | 3.0 | 8.0 | 0.00 | 0.00 | 0.00 | 68 | 1016.8 |
| 20260901141204 | 84 | 217 | 2.0 | 6.0 | 0.00 | 0.00 | 0.00 | 68 | 1016.8 |
| 20260901141104 | 84 | 210 | 2.0 | 6.0 | 0.00 | 0.00 | 0.00 | 69 | 1016.8 |
| 20260901141004 | 84 | 205 | 2.0 | 6.0 | 0.00 | 0.00 | 0.00 | 69 | 1016.8 |
| 20260901140904 | 84 | 201 | 2.0 | 6.0 | 0.00 | 0.00 | 0.00 | 69 | 1016.8 |
| 20260901140803 | 84 | 200 | 2.0 | 7.0 | 0.00 | 0.00 | 0.00 | 69 | 1016.8 |
| 20260901140704 | 84 | 201 | 3.0 | 7.0 | 0.00 | 0.00 | 0.00 | 70 | 1016.8 |
| 20260901140604 | 83 | 196 | 3.0 | 7.0 | 0.00 | 0.00 | 0.00 | 70 | 1016.8 |
| 20260901140504 | 83 | 190 | 3.0 | 7.0 | 0.00 | 0.00 | 0.00 | 70 | 1016.7 |
| 20260901140404 | 83 | 187 | 3.0 | 7.0 | 0.00 | 0.00 | 0.00 | 71 | 1016.8 |
| 20260901140304 | 83 | 182 | 3.0 | 7.0 | 0.00 | 0.00 | 0.00 | 71 | 1016.8 |
| 20260901140204 | 83 | 178 | 3.0 | 7.0 | 0.00 | 0.00 | 0.00 | 71 | 1016.8 |
| 20260901140104 | 83 | 176 | 3.0 | 7.0 | 0.00 | 0.00 | 0.00 | 71 | 1016.8 |
| 20260901140004 | 83 | 174 | 3.0 | 7.0 | 0.00 | 0.00 | 0.00 | 70 | 1016.8 |
| 20260901135904 | 83 | 177 | 3.0 | 7.0 | 0.00 | 0.00 | 0.00 | 71 | 1016.8 |
| 20260901135804 | 83 | 174 | 2.0 | 7.0 | 0.00 | 0.00 | 0.00 | 70 | 1016.8 |
| 20260901135704 | 83 | 168 | 2.0 | 7.0 | 0.00 | 0.00 | 0.00 | 70 | 1016.7 |
| 20260901135605 | 83 | 162 | 2.0 | 7.0 | 0.00 | 0.00 | 0.00 | 71 | 1016.7 |
| 20260901135504 | 82 | 157 | 3.0 | 7.0 | 0.00 | 0.00 | 0.00 | 71 | 1016.7 |
| 20260901135204 | 82 | 148 | 3.0 | 7.0 | 0.00 | 0.00 | 0.00 | 71 | 1016.7 |
| 20260901135004 | 82 | 150 | 2.0 | 7.0 | 0.00 | 0.00 | 0.00 | 71 | 1016.6 |
| 20260901134904 | 82 | 148 | 2.0 | 7.0 | 0.00 | 0.00 | 0.00 | 72 | 1016.6 |
| 20260901134804 | 82 | 146 | 2.0 | 7.0 | 0.00 | 0.00 | 0.00 | 72 | 1016.6 |
| 20260901134704 | 82 | 144 | 2.0 | 6.0 | 0.00 | 0.00 | 0.00 | 72 | 1016.6 |
| 20260901134604 | 82 | 150 | 2.0 | 6.0 | 0.00 | 0.00 | 0.00 | 72 | 1016.7 |
| 20260901134504 | 82 | 156 | 2.0 | 6.0 | 0.00 | 0.00 | 0.00 | 72 | 1016.6 |
| 20260901134403 | 82 | 161 | 2.0 | 4.0 | 0.00 | 0.00 | 0.00 | 72 | 1016.7 |
| 20260901134204 | 82 | 175 | 2.0 | 4.0 | 0.00 | 0.00 | 0.00 | 73 | 1016.7 |
| 20260901134104 | 82 | 179 | 2.0 | 4.0 | 0.00 | 0.00 | 0.00 | 73 | 1016.7 |
| 20260901134004 | 82 | 185 | 2.0 | 5.0 | 0.00 | 0.00 | 0.00 | 73 | 1016.7 |
| 20260901133904 | 82 | 193 | 2.0 | 5.0 | 0.00 | 0.00 | 0.00 | 73 | 1016.7 |
| 20260901133804 | 82 | 200 | 2.0 | 5.0 | 0.00 | 0.00 | 0.00 | 73 | 1016.7 |
| 20260901133604 | 81 | 204 | 2.0 | 5.0 | 0.00 | 0.00 | 0.00 | 73 | 1016.6 |
| 20260901133504 | 81 | 208 | 2.0 | 5.0 | 0.00 | 0.00 | 0.00 | 73 | 1016.6 |
| 20260901133204 | 81 | 208 | 3.0 | 5.0 | 0.00 | 0.00 | 0.00 | 74 | 1016.6 |
| 20260901133004 | 81 | 203 | 3.0 | 5.0 | 0.00 | 0.00 | 0.00 | 74 | 1016.7 |
| 20260901132804 | 81 | 200 | 2.0 | 5.0 | 0.00 | 0.00 | 0.00 | 74 | 1016.6 |
| 20260901132604 | 81 | 204 | 3.0 | 5.0 | 0.00 | 0.00 | 0.00 | 74 | 1016.6 |
| 20260901132503 | 81 | 204 | 2.0 | 5.0 | 0.00 | 0.00 | 0.00 | 74 | 1016.6 |
| 20260901132404 | 80 | 203 | 2.0 | 5.0 | 0.00 | 0.00 | 0.00 | 74 | 1016.6 |
| 20260901132307 | 80 | 205 | 2.0 | 4.0 | 0.00 | 0.00 | 0.00 | 74 | 1016.6 |
| 20260901132205 | 81 | 209 | 2.0 | 5.0 | 0.00 | 0.00 | 0.00 | 74 | 1016.7 |
| 20260901132104 | 81 | 214 | 2.0 | 5.0 | 0.00 | 0.00 | 0.00 | 74 | 1016.6 |
| 20260901131904 | 81 | 219 | 2.0 | 6.0 | 0.00 | 0.00 | 0.00 | 74 | 1016.6 |
| 20260901131804 | 81 | 221 | 2.0 | 6.0 | 0.00 | 0.00 | 0.00 | 74 | 1016.5 |
| 20260901131704 | 80 | 224 | 2.0 | 6.0 | 0.00 | 0.00 | 0.00 | 75 | 1016.5 |
| 20260901131604 | 80 | 223 | 1.0 | 6.0 | 0.00 | 0.00 | 0.00 | 75 | 1016.5 |
| 20260901131504 | 80 | 223 | 1.0 | 6.0 | 0.00 | 0.00 | 0.00 | 75 | 1016.5 |
| 20260901131204 | 80 | 223 | 0.0 | 6.0 | 0.00 | 0.00 | 0.00 | 76 | 1016.5 |
| 20260901131103 | 80 | 226 | 0.0 | 6.0 | 0.00 | 0.00 | 0.00 | 76 | 1016.5 |
| 20260901131004 | 80 | 0 | 0.0 | 0.0 | 0.00 | 0.00 | 0.00 | 76 | 1016.5 |
| 20260901130904 | 80 | 0 | 0.0 | 0.0 | 0.00 | 0.00 | 0.00 | 77 | 1016.4 |
| 20260901130805 | 80 | 0 | 0.0 | 0.0 | 0.00 | 0.00 | 0.00 | 77 | 1016.4 |
| 20260901130703 | 79 | 0 | 0.0 | 0.0 | 0.00 | 0.00 | 0.00 | 77 | 1016.3 |
| 20260901130404 | 79 | 0 | 0.0 | 0.0 | 0.00 | 0.00 | 0.00 | 77 | 1016.3 |
| 20260901130303 | 79 | 0 | 0.0 | 0.0 | 0.00 | 0.00 | 0.00 | 77 | 1016.4 |
| 20260901130104 | 79 | 0 | 0.0 | 0.0 | 0.00 | 0.00 | 0.00 | 78 | 1016.2 |
| 20260901130004 | 78 | 0 | 0.0 | 0.0 | 0.00 | 0.00 | 0.00 | 79 | 1016.3 |
| 20260901125904 | 78 | 0 | 0.0 | 0.0 | 0.00 | 0.00 | 0.00 | 79 | 1016.2 |
| 20260901125803 | 78 | 0 | 0.0 | 0.0 | 0.00 | 0.00 | 0.00 | 79 | 1016.2 |
| 20260901125704 | 78 | 0 | 0.0 | 0.0 | 0.00 | 0.00 | 0.00 | 79 | 1016.2 |
| 20260901125604 | 78 | 0 | 0.0 | 0.0 | 0.00 | 0.00 | 0.00 | 80 | 1016.1 |
| 20260901125504 | 78 | 0 | 0.0 | 0.0 | 0.00 | 0.00 | 0.00 | 80 | 1016.2 |
| 20260901125405 | 77 | 0 | 0.0 | 0.0 | 0.00 | 0.00 | 0.00 | 80 | 1016.1 |
| 20260901125308 | 77 | 0 | 0.0 | 0.0 | 0.00 | 0.00 | 0.00 | 80 | 1016.1 |
| 20260901125204 | 77 | 0 | 0.0 | 0.0 | 0.00 | 0.00 | 0.00 | 80 | 1016.1 |
| 20260901125004 | 77 | 0 | 0.0 | 0.0 | 0.00 | 0.00 | 0.00 | 81 | 1016.1 |
| 20260901124904 | 77 | 0 | 0.0 | 0.0 | 0.00 | 0.00 | 0.00 | 81 | 1016.0 |
| 20260901124804 | 77 | 0 | 0.0 | 0.0 | 0.00 | 0.00 | 0.00 | 81 | 1016.0 |
| 20260901124704 | 77 | 0 | 0.0 | 0.0 | 0.00 | 0.00 | 0.00 | 81 | 1016.1 |
| 20260901124604 | 77 | 0 | 0.0 | 0.0 | 0.00 | 0.00 | 0.00 | 81 | 1016.0 |
| 20260901124505 | 76 | 0 | 0.0 | 0.0 | 0.00 | 0.00 | 0.00 | 81 | 1016.0 |
| 20260901124404 | 76 | 0 | 0.0 | 0.0 | 0.00 | 0.00 | 0.00 | 81 | 1016.0 |
| 20260901124304 | 76 | 0 | 0.0 | 0.0 | 0.00 | 0.00 | 0.00 | 81 | 1016.0 |
| 20260901124203 | 76 | 0 | 0.0 | 0.0 | 0.00 | 0.00 | 0.00 | 81 | 1016.0 |
| 20260901124104 | 76 | 0 | 0.0 | 0.0 | 0.00 | 0.00 | 0.00 | 81 | 1016.0 |
| 20260901124003 | 76 | 0 | 0.0 | 0.0 | 0.00 | 0.00 | 0.00 | 81 | 1016.0 |
| 20260901123904 | 76 | 0 | 0.0 | 0.0 | 0.00 | 0.00 | 0.00 | 81 | 1015.9 |
| 20260901123804 | 76 | 0 | 0.0 | 0.0 | 0.00 | 0.00 | 0.00 | 81 | 1016.0 |
| 20260901123704 | 76 | 0 | 0.0 | 0.0 | 0.00 | 0.00 | 0.00 | 81 | 1016.0 |
| 20260901123604 | 76 | 0 | 0.0 | 0.0 | 0.00 | 0.00 | 0.00 | 81 | 1016.0 |
| 20260901123504 | 76 | 0 | 0.0 | 0.0 | 0.00 | 0.00 | 0.00 | 81 | 1015.9 |
| 20260901123403 | 76 | 0 | 0.0 | 0.0 | 0.00 | 0.00 | 0.00 | 81 | 1015.9 |
| 20260901123204 | 76 | 0 | 0.0 | 0.0 | 0.00 | 0.00 | 0.00 | 81 | 1015.9 |
| 20260901123103 | 76 | 0 | 0.0 | 0.0 | 0.00 | 0.00 | 0.00 | 81 | 1015.9 |
| 20260901123005 | 76 | 0 | 0.0 | 0.0 | 0.00 | 0.00 | 0.00 | 81 | 1015.9 |
| 20260901122804 | 76 | 0 | 0.0 | 0.0 | 0.00 | 0.00 | 0.00 | 80 | 1015.8 |
| 20260901122704 | 76 | 0 | 0.0 | 0.0 | 0.00 | 0.00 | 0.00 | 80 | 1015.8 |
| 20260901122604 | 76 | 0 | 0.0 | 0.0 | 0.00 | 0.00 | 0.00 | 80 | 1015.8 |
| 20260901122504 | 76 | 0 | 0.0 | 0.0 | 0.00 | 0.00 | 0.00 | 80 | 1015.8 |
| 20260901122404 | 76 | 0 | 0.0 | 0.0 | 0.00 | 0.00 | 0.00 | 80 | 1015.8 |
| 20260901122306 | 76 | 0 | 0.0 | 0.0 | 0.00 | 0.00 | 0.00 | 80 | 1015.8 |
| 20260901122204 | 76 | 0 | 0.0 | 0.0 | 0.00 | 0.00 | 0.00 | 80 | 1015.8 |
| 20260901122104 | 76 | 0 | 0.0 | 0.0 | 0.00 | 0.00 | 0.00 | 80 | 1015.8 |
| 20260901122004 | 76 | 0 | 0.0 | 0.0 | 0.00 | 0.00 | 0.00 | 80 | 1015.8 |
| 20260901121904 | 76 | 0 | 0.0 | 0.0 | 0.00 | 0.00 | 0.00 | 81 | 1015.8 |
| 20260901121703 | 76 | 0 | 0.0 | 0.0 | 0.00 | 0.00 | 0.00 | 81 | 1015.8 |
| 20260901121604 | 76 | 0 | 0.0 | 0.0 | 0.00 | 0.00 | 0.00 | 81 | 1015.8 |
| 20260901121405 | 76 | 0 | 0.0 | 0.0 | 0.00 | 0.00 | 0.00 | 81 | 1015.8 |
| 20260901121204 | 76 | 0 | 0.0 | 0.0 | 0.00 | 0.00 | 0.00 | 80 | 1015.8 |
| 20260901121104 | 76 | 0 | 0.0 | 0.0 | 0.00 | 0.00 | 0.00 | 80 | 1015.7 |
| 20260901121004 | 76 | 0 | 0.0 | 0.0 | 0.00 | 0.00 | 0.00 | 80 | 1015.8 |
| 20260901120904 | 76 | 0 | 0.0 | 0.0 | 0.00 | 0.00 | 0.00 | 81 | 1015.7 |
| 20260901120704 | 76 | 0 | 0.0 | 0.0 | 0.00 | 0.00 | 0.00 | 81 | 1015.7 |
| 20260901120603 | 76 | 0 | 0.0 | 0.0 | 0.00 | 0.00 | 0.00 | 80 | 1015.8 |
| 20260901120403 | 76 | 0 | 0.0 | 0.0 | 0.00 | 0.00 | 0.00 | 80 | 1015.8 |
| 20260901120204 | 76 | 0 | 0.0 | 0.0 | 0.00 | 0.00 | 0.00 | 80 | 1015.8 |
| 20260901120004 | 77 | 0 | 0.0 | 0.0 | 0.00 | 0.00 | 0.00 | 80 | 1015.7 |
| 20260901115904 | 77 | 0 | 0.0 | 0.0 | 0.00 | 0.00 | 0.00 | 80 | 1015.7 |
| 20260901115804 | 77 | 0 | 0.0 | 0.0 | 0.00 | 0.00 | 0.00 | 80 | 1015.8 |
| 20260901115704 | 77 | 0 | 0.0 | 0.0 | 0.00 | 0.00 | 0.00 | 80 | 1015.7 |
| 20260901115604 | 77 | 0 | 0.0 | 0.0 | 0.00 | 0.00 | 0.00 | 80 | 1015.7 |
| 20260901115504 | 77 | 0 | 0.0 | 0.0 | 0.00 | 0.00 | 0.00 | 80 | 1015.7 |
| 20260901115404 | 77 | 0 | 0.0 | 0.0 | 0.00 | 0.00 | 0.00 | 80 | 1015.7 |
| 20260901115306 | 77 | 0 | 0.0 | 0.0 | 0.00 | 0.00 | 0.00 | 80 | 1015.7 |
| 20260901115203 | 77 | 0 | 0.0 | 0.0 | 0.00 | 0.00 | 0.00 | 80 | 1015.7 |
| 20260901115104 | 77 | 0 | 0.0 | 0.0 | 0.00 | 0.00 | 0.00 | 80 | 1015.7 |
| 20260901115004 | 77 | 0 | 0.0 | 0.0 | 0.00 | 0.00 | 0.00 | 80 | 1015.7 |
| 20260901114904 | 77 | 0 | 0.0 | 0.0 | 0.00 | 0.00 | 0.00 | 80 | 1015.7 |
| 20260901114803 | 77 | 0 | 0.0 | 0.0 | 0.00 | 0.00 | 0.00 | 80 | 1015.7 |
| 20260901114704 | 77 | 0 | 0.0 | 0.0 | 0.00 | 0.00 | 0.00 | 80 | 1015.7 |
| 20260901114603 | 77 | 0 | 0.0 | 0.0 | 0.00 | 0.00 | 0.00 | 80 | 1015.7 |
| 20260901114404 | 76 | 0 | 0.0 | 0.0 | 0.00 | 0.00 | 0.00 | 80 | 1015.7 |
| 20260901114303 | 76 | 0 | 0.0 | 0.0 | 0.00 | 0.00 | 0.00 | 80 | 1015.7 |
| 20260901114204 | 76 | 175 | 0.0 | 2.0 | 0.00 | 0.00 | 0.00 | 80 | 1015.6 |
| 20260901114104 | 76 | 175 | 0.0 | 2.0 | 0.00 | 0.00 | 0.00 | 80 | 1015.6 |
| 20260901114004 | 76 | 174 | 0.0 | 2.0 | 0.00 | 0.00 | 0.00 | 79 | 1015.6 |
| 20260901113904 | 76 | 175 | 1.0 | 2.0 | 0.00 | 0.00 | 0.00 | 80 | 1015.6 |
| 20260901113803 | 77 | 178 | 1.0 | 2.0 | 0.00 | 0.00 | 0.00 | 80 | 1015.6 |
| 20260901113704 | 77 | 181 | 1.0 | 2.0 | 0.00 | 0.00 | 0.00 | 79 | 1015.7 |
| 20260901113604 | 77 | 183 | 1.0 | 2.0 | 0.00 | 0.00 | 0.00 | 79 | 1015.7 |
| 20260901113503 | 77 | 183 | 1.0 | 2.0 | 0.00 | 0.00 | 0.00 | 79 | 1015.7 |
| 20260901113404 | 77 | 185 | 1.0 | 2.0 | 0.00 | 0.00 | 0.00 | 79 | 1015.6 |
| 20260901113204 | 77 | 189 | 1.0 | 2.0 | 0.00 | 0.00 | 0.00 | 79 | 1015.7 |
| 20260901113103 | 77 | 191 | 1.0 | 2.0 | 0.00 | 0.00 | 0.00 | 79 | 1015.7 |
| 20260901113004 | 77 | 192 | 1.0 | 2.0 | 0.00 | 0.00 | 0.00 | 79 | 1015.6 |
| 20260901112903 | 77 | 192 | 1.0 | 2.0 | 0.00 | 0.00 | 0.00 | 79 | 1015.6 |
| 20260901112804 | 77 | 189 | 1.0 | 2.0 | 0.00 | 0.00 | 0.00 | 79 | 1015.6 |
| 20260901112703 | 77 | 184 | 1.0 | 2.0 | 0.00 | 0.00 | 0.00 | 79 | 1015.6 |
| 20260901112604 | 77 | 179 | 1.0 | 2.0 | 0.00 | 0.00 | 0.00 | 79 | 1015.6 |
| 20260901112503 | 77 | 176 | 1.0 | 2.0 | 0.00 | 0.00 | 0.00 | 79 | 1015.6 |
| 20260901112306 | 77 | 168 | 1.0 | 3.0 | 0.00 | 0.00 | 0.00 | 79 | 1015.6 |
| 20260901112204 | 77 | 171 | 1.0 | 3.0 | 0.00 | 0.00 | 0.00 | 79 | 1015.6 |
| 20260901112103 | 77 | 171 | 1.0 | 3.0 | 0.00 | 0.00 | 0.00 | 79 | 1015.6 |
| 20260901112004 | 77 | 172 | 1.0 | 3.0 | 0.00 | 0.00 | 0.00 | 79 | 1015.6 |
| 20260901111904 | 77 | 173 | 1.0 | 3.0 | 0.00 | 0.00 | 0.00 | 79 | 1015.6 |
| 20260901111804 | 77 | 177 | 1.0 | 4.0 | 0.00 | 0.00 | 0.00 | 79 | 1015.6 |
| 20260901111603 | 77 | 185 | 1.0 | 4.0 | 0.00 | 0.00 | 0.00 | 79 | 1015.6 |
| 20260901111504 | 77 | 189 | 2.0 | 4.0 | 0.00 | 0.00 | 0.00 | 79 | 1015.6 |
| 20260901111403 | 77 | 192 | 2.0 | 5.0 | 0.00 | 0.00 | 0.00 | 79 | 1015.6 |
| 20260901111304 | 77 | 195 | 2.0 | 5.0 | 0.00 | 0.00 | 0.00 | 79 | 1015.6 |
| 20260901111204 | 77 | 196 | 2.0 | 5.0 | 0.00 | 0.00 | 0.00 | 79 | 1015.6 |
| 20260901111104 | 77 | 199 | 2.0 | 5.0 | 0.00 | 0.00 | 0.00 | 79 | 1015.7 |
| 20260901111004 | 77 | 200 | 2.0 | 5.0 | 0.00 | 0.00 | 0.00 | 78 | 1015.7 |
| 20260901110904 | 77 | 200 | 2.0 | 5.0 | 0.00 | 0.00 | 0.00 | 78 | 1015.7 |
| 20260901110703 | 77 | 200 | 1.0 | 5.0 | 0.00 | 0.00 | 0.00 | 78 | 1015.7 |
| 20260901110604 | 77 | 200 | 1.0 | 5.0 | 0.00 | 0.00 | 0.00 | 78 | 1015.7 |
| 20260901110503 | 78 | 200 | 1.0 | 5.0 | 0.00 | 0.00 | 0.00 | 78 | 1015.7 |
| 20260901110404 | 77 | 201 | 1.0 | 4.0 | 0.00 | 0.00 | 0.00 | 78 | 1015.7 |
| 20260901110303 | 78 | 200 | 0.0 | 4.0 | 0.00 | 0.00 | 0.00 | 78 | 1015.6 |
| 20260901110204 | 78 | 204 | 0.0 | 4.0 | 0.00 | 0.00 | 0.00 | 78 | 1015.7 |
| 20260901110103 | 77 | 200 | 0.0 | 3.0 | 0.00 | 0.00 | 0.00 | 78 | 1015.7 |
| 20260901110004 | 78 | 0 | 0.0 | 0.0 | 0.00 | 0.00 | 0.00 | 78 | 1015.6 |
| 20260901105903 | 78 | 0 | 0.0 | 0.0 | 0.00 | 0.00 | 0.00 | 78 | 1015.7 |
| 20260901105804 | 78 | 0 | 0.0 | 0.0 | 0.00 | 0.00 | 0.00 | 78 | 1015.7 |
| 20260901105703 | 78 | 0 | 0.0 | 0.0 | 0.00 | 0.00 | 0.00 | 78 | 1015.6 |
| 20260901105503 | 78 | 0 | 0.0 | 0.0 | 0.00 | 0.00 | 0.00 | 78 | 1015.6 |
| 20260901105404 | 78 | 0 | 0.0 | 0.0 | 0.00 | 0.00 | 0.00 | 78 | 1015.6 |
| 20260901105305 | 78 | 0 | 0.0 | 0.0 | 0.00 | 0.00 | 0.00 | 78 | 1015.6 |
| 20260901105204 | 78 | 0 | 0.0 | 0.0 | 0.00 | 0.00 | 0.00 | 78 | 1015.5 |
| 20260901105004 | 77 | 0 | 0.0 | 0.0 | 0.00 | 0.00 | 0.00 | 78 | 1015.5 |
| 20260901104903 | 77 | 0 | 0.0 | 0.0 | 0.00 | 0.00 | 0.00 | 78 | 1015.6 |
| 20260901104804 | 77 | 0 | 0.0 | 0.0 | 0.00 | 0.00 | 0.00 | 78 | 1015.6 |
| 20260901104603 | 77 | 0 | 0.0 | 0.0 | 0.00 | 0.00 | 0.00 | 78 | 1015.6 |
| 20260901104504 | 77 | 0 | 0.0 | 0.0 | 0.00 | 0.00 | 0.00 | 78 | 1015.6 |
| 20260901104204 | 77 | 0 | 0.0 | 0.0 | 0.00 | 0.00 | 0.00 | 78 | 1015.6 |
| 20260901104003 | 77 | 0 | 0.0 | 0.0 | 0.00 | 0.00 | 0.00 | 77 | 1015.5 |
| 20260901103904 | 77 | 0 | 0.0 | 0.0 | 0.00 | 0.00 | 0.00 | 77 | 1015.5 |
| 20260901103803 | 77 | 0 | 0.0 | 0.0 | 0.00 | 0.00 | 0.00 | 77 | 1015.5 |
| 20260901103503 | 78 | 0 | 0.0 | 0.0 | 0.00 | 0.00 | 0.00 | 77 | 1015.5 |
| 20260901103403 | 78 | 0 | 0.0 | 0.0 | 0.00 | 0.00 | 0.00 | 77 | 1015.5 |
| 20260901103207 | 78 | 0 | 0.0 | 0.0 | 0.00 | 0.00 | 0.00 | 77 | 1015.5 |
| 20260901103106 | 78 | 0 | 0.0 | 0.0 | 0.00 | 0.00 | 0.00 | 77 | 1015.5 |
| 20260901103007 | 78 | 0 | 0.0 | 0.0 | 0.00 | 0.00 | 0.00 | 77 | 1015.5 |
| 20260901102906 | 78 | 0 | 0.0 | 0.0 | 0.00 | 0.00 | 0.00 | 77 | 1015.5 |
| 20260901102807 | 78 | 0 | 0.0 | 0.0 | 0.00 | 0.00 | 0.00 | 77 | 1015.5 |
| 20260901102707 | 78 | 0 | 0.0 | 0.0 | 0.00 | 0.00 | 0.00 | 77 | 1015.4 |
| 20260901102607 | 78 | 0 | 0.0 | 0.0 | 0.00 | 0.00 | 0.00 | 76 | 1015.4 |
| 20260901102506 | 78 | 0 | 0.0 | 0.0 | 0.00 | 0.00 | 0.00 | 76 | 1015.4 |
| 20260901102407 | 78 | 0 | 0.0 | 0.0 | 0.00 | 0.00 | 0.00 | 76 | 1015.4 |
| 20260901102306 | 78 | 0 | 0.0 | 0.0 | 0.00 | 0.00 | 0.00 | 76 | 1015.4 |
| 20260901102207 | 78 | 0 | 0.0 | 0.0 | 0.00 | 0.00 | 0.00 | 76 | 1015.4 |
| 20260901102106 | 78 | 0 | 0.0 | 0.0 | 0.00 | 0.00 | 0.00 | 76 | 1015.4 |
| 20260901102007 | 78 | 0 | 0.0 | 0.0 | 0.00 | 0.00 | 0.00 | 76 | 1015.4 |
| 20260901101906 | 78 | 0 | 0.0 | 0.0 | 0.00 | 0.00 | 0.00 | 76 | 1015.4 |
| 20260901101807 | 78 | 0 | 0.0 | 0.0 | 0.00 | 0.00 | 0.00 | 76 | 1015.4 |
| 20260901101707 | 78 | 0 | 0.0 | 0.0 | 0.00 | 0.00 | 0.00 | 76 | 1015.3 |
| 20260901101607 | 78 | 0 | 0.0 | 0.0 | 0.00 | 0.00 | 0.00 | 76 | 1015.3 |
| 20260901101506 | 78 | 0 | 0.0 | 0.0 | 0.00 | 0.00 | 0.00 | 76 | 1015.3 |
| 20260901101307 | 78 | 0 | 0.0 | 0.0 | 0.00 | 0.00 | 0.00 | 76 | 1015.4 |
| 20260901101207 | 78 | 0 | 0.0 | 0.0 | 0.00 | 0.00 | 0.00 | 76 | 1015.3 |
| 20260901101106 | 78 | 0 | 0.0 | 0.0 | 0.00 | 0.00 | 0.00 | 76 | 1015.4 |
| 20260901101006 | 78 | 0 | 0.0 | 0.0 | 0.00 | 0.00 | 0.00 | 76 | 1015.4 |
| 20260901100906 | 78 | 0 | 0.0 | 0.0 | 0.00 | 0.00 | 0.00 | 76 | 1015.4 |
| 20260901100806 | 78 | 0 | 0.0 | 0.0 | 0.00 | 0.00 | 0.00 | 76 | 1015.4 |
| 20260901100706 | 78 | 0 | 0.0 | 0.0 | 0.00 | 0.00 | 0.00 | 76 | 1015.4 |
| 20260901100607 | 78 | 0 | 0.0 | 0.0 | 0.00 | 0.00 | 0.00 | 76 | 1015.4 |
| 20260901100408 | 78 | 0 | 0.0 | 0.0 | 0.00 | 0.00 | 0.00 | 76 | 1015.4 |
| 20260901100306 | 78 | 0 | 0.0 | 0.0 | 0.00 | 0.00 | 0.00 | 76 | 1015.4 |
| 20260901100206 | 78 | 0 | 0.0 | 0.0 | 0.00 | 0.00 | 0.00 | 76 | 1015.4 |
| 20260901100106 | 78 | 0 | 0.0 | 0.0 | 0.00 | 0.00 | 0.00 | 76 | 1015.4 |
| 20260901100007 | 78 | 0 | 0.0 | 0.0 | 0.00 | 0.00 | 0.00 | 75 | 1015.4 |
| 20260901095906 | 78 | 0 | 0.0 | 0.0 | 0.00 | 0.00 | 0.00 | 76 | 1015.4 |
| 20260901095706 | 78 | 0 | 0.0 | 0.0 | 0.00 | 0.00 | 0.00 | 75 | 1015.4 |
| 20260901095606 | 78 | 0 | 0.0 | 0.0 | 0.00 | 0.00 | 0.00 | 75 | 1015.4 |
| 20260901095506 | 78 | 0 | 0.0 | 0.0 | 0.00 | 0.00 | 0.00 | 75 | 1015.4 |
| 20260901095407 | 78 | 0 | 0.0 | 0.0 | 0.00 | 0.00 | 0.00 | 75 | 1015.4 |
| 20260901095307 | 78 | 0 | 0.0 | 0.0 | 0.00 | 0.00 | 0.00 | 75 | 1015.4 |
| 20260901095207 | 78 | 0 | 0.0 | 0.0 | 0.00 | 0.00 | 0.00 | 75 | 1015.5 |
| 20260901095106 | 78 | 0 | 0.0 | 0.0 | 0.00 | 0.00 | 0.00 | 75 | 1015.5 |
| 20260901095008 | 78 | 0 | 0.0 | 0.0 | 0.00 | 0.00 | 0.00 | 75 | 1015.5 |
| 20260901094906 | 78 | 0 | 0.0 | 0.0 | 0.00 | 0.00 | 0.00 | 75 | 1015.5 |
| 20260901094806 | 78 | 0 | 0.0 | 0.0 | 0.00 | 0.00 | 0.00 | 75 | 1015.4 |
| 20260901094707 | 78 | 0 | 0.0 | 0.0 | 0.00 | 0.00 | 0.00 | 75 | 1015.5 |
| 20260901094507 | 78 | 0 | 0.0 | 0.0 | 0.00 | 0.00 | 0.00 | 75 | 1015.5 |
| 20260901094406 | 78 | 0 | 0.0 | 0.0 | 0.00 | 0.00 | 0.00 | 75 | 1015.5 |
| 20260901094306 | 78 | 238 | 0.0 | 1.0 | 0.00 | 0.00 | 0.00 | 75 | 1015.5 |
| 20260901094206 | 78 | 230 | 0.0 | 3.0 | 0.00 | 0.00 | 0.00 | 75 | 1015.5 |
| 20260901094106 | 78 | 229 | 1.0 | 4.0 | 0.00 | 0.00 | 0.00 | 75 | 1015.5 |
| 20260901094007 | 78 | 227 | 1.0 | 4.0 | 0.00 | 0.00 | 0.00 | 75 | 1015.4 |
| 20260901093906 | 78 | 223 | 1.0 | 4.0 | 0.00 | 0.00 | 0.00 | 75 | 1015.5 |
| 20260901093706 | 79 | 222 | 2.0 | 4.0 | 0.00 | 0.00 | 0.00 | 75 | 1015.5 |
| 20260901093607 | 79 | 221 | 2.0 | 4.0 | 0.00 | 0.00 | 0.00 | 75 | 1015.5 |
| 20260901093506 | 79 | 220 | 2.0 | 4.0 | 0.00 | 0.00 | 0.00 | 75 | 1015.5 |
| 20260901093407 | 79 | 219 | 2.0 | 4.0 | 0.00 | 0.00 | 0.00 | 75 | 1015.5 |
| 20260901093306 | 79 | 218 | 2.0 | 4.0 | 0.00 | 0.00 | 0.00 | 75 | 1015.5 |
| 20260901093208 | 79 | 216 | 2.0 | 4.0 | 0.00 | 0.00 | 0.00 | 74 | 1015.5 |
| 20260901093106 | 79 | 214 | 2.0 | 4.0 | 0.00 | 0.00 | 0.00 | 74 | 1015.5 |
| 20260901093006 | 79 | 211 | 2.0 | 4.0 | 0.00 | 0.00 | 0.00 | 75 | 1015.4 |
| 20260901092906 | 79 | 209 | 2.0 | 4.0 | 0.00 | 0.00 | 0.00 | 75 | 1015.4 |
| 20260901092807 | 79 | 208 | 2.0 | 4.0 | 0.00 | 0.00 | 0.00 | 75 | 1015.5 |
| 20260901092707 | 79 | 203 | 1.0 | 4.0 | 0.00 | 0.00 | 0.00 | 75 | 1015.5 |
| 20260901092607 | 79 | 199 | 1.0 | 4.0 | 0.00 | 0.00 | 0.00 | 75 | 1015.5 |
| 20260901092406 | 79 | 194 | 1.0 | 4.0 | 0.00 | 0.00 | 0.00 | 75 | 1015.5 |
| 20260901092307 | 79 | 192 | 1.0 | 4.0 | 0.00 | 0.00 | 0.00 | 75 | 1015.5 |
| 20260901092207 | 79 | 189 | 1.0 | 4.0 | 0.00 | 0.00 | 0.00 | 75 | 1015.6 |
| 20260901092106 | 79 | 187 | 1.0 | 3.0 | 0.00 | 0.00 | 0.00 | 75 | 1015.6 |
| 20260901092007 | 79 | 187 | 1.0 | 3.0 | 0.00 | 0.00 | 0.00 | 75 | 1015.5 |
| 20260901091906 | 79 | 187 | 2.0 | 3.0 | 0.00 | 0.00 | 0.00 | 74 | 1015.5 |
| 20260901091807 | 79 | 187 | 2.0 | 3.0 | 0.00 | 0.00 | 0.00 | 75 | 1015.5 |
| 20260901091706 | 79 | 189 | 2.0 | 3.0 | 0.00 | 0.00 | 0.00 | 75 | 1015.4 |
| 20260901091607 | 79 | 187 | 2.0 | 3.0 | 0.00 | 0.00 | 0.00 | 75 | 1015.5 |
| 20260901091506 | 79 | 186 | 2.0 | 3.0 | 0.00 | 0.00 | 0.00 | 75 | 1015.5 |
| 20260901091206 | 79 | 184 | 2.0 | 4.0 | 0.00 | 0.00 | 0.00 | 75 | 1015.5 |
| 20260901091108 | 79 | 184 | 2.0 | 4.0 | 0.00 | 0.00 | 0.00 | 75 | 1015.5 |
| 20260901091006 | 79 | 184 | 2.0 | 4.0 | 0.00 | 0.00 | 0.00 | 75 | 1015.5 |
| 20260901090906 | 79 | 184 | 2.0 | 4.0 | 0.00 | 0.00 | 0.00 | 75 | 1015.5 |
| 20260901090806 | 79 | 184 | 2.0 | 4.0 | 0.00 | 0.00 | 0.00 | 75 | 1015.5 |
| 20260901090706 | 78 | 184 | 2.0 | 4.0 | 0.00 | 0.00 | 0.00 | 75 | 1015.5 |
| 20260901090607 | 79 | 184 | 2.0 | 4.0 | 0.00 | 0.00 | 0.00 | 75 | 1015.5 |
| 20260901090506 | 78 | 184 | 2.0 | 4.0 | 0.00 | 0.00 | 0.00 | 75 | 1015.5 |
| 20260901090406 | 78 | 181 | 2.0 | 4.0 | 0.00 | 0.00 | 0.00 | 75 | 1015.5 |
| 20260901090306 | 78 | 178 | 2.0 | 4.0 | 0.00 | 0.00 | 0.00 | 75 | 1015.5 |
| 20260901090106 | 78 | 174 | 2.0 | 4.0 | 0.00 | 0.00 | 0.00 | 75 | 1015.4 |
| 20260901090007 | 78 | 171 | 2.0 | 4.0 | 0.00 | 0.00 | 0.00 | 75 | 1015.4 |
| 20260901085807 | 79 | 168 | 2.0 | 4.0 | 0.00 | 0.00 | 0.00 | 75 | 1015.4 |
| 20260901085706 | 78 | 166 | 2.0 | 4.0 | 0.00 | 0.00 | 0.00 | 75 | 1015.4 |
| 20260901085506 | 79 | 165 | 2.0 | 4.0 | 0.00 | 0.00 | 0.00 | 75 | 1015.4 |
| 20260901085406 | 79 | 164 | 2.0 | 4.0 | 0.00 | 0.00 | 0.00 | 75 | 1015.3 |
| 20260901085306 | 79 | 164 | 2.0 | 4.0 | 0.00 | 0.00 | 0.00 | 75 | 1015.3 |
| 20260901085106 | 79 | 164 | 2.0 | 3.0 | 0.00 | 0.00 | 0.00 | 74 | 1015.3 |
| 20260901085006 | 79 | 165 | 2.0 | 4.0 | 0.00 | 0.00 | 0.00 | 74 | 1015.3 |
| 20260901084907 | 79 | 166 | 2.0 | 4.0 | 0.00 | 0.00 | 0.00 | 74 | 1015.3 |
| 20260901084606 | 79 | 169 | 2.0 | 4.0 | 0.00 | 0.00 | 0.00 | 74 | 1015.2 |
| 20260901084506 | 79 | 169 | 2.0 | 4.0 | 0.00 | 0.00 | 0.00 | 74 | 1015.2 |
| 20260901084406 | 79 | 169 | 2.0 | 4.0 | 0.00 | 0.00 | 0.00 | 74 | 1015.2 |
| 20260901084306 | 79 | 170 | 2.0 | 4.0 | 0.00 | 0.00 | 0.00 | 74 | 1015.2 |
| 20260901084206 | 79 | 171 | 2.0 | 4.0 | 0.00 | 0.00 | 0.00 | 74 | 1015.2 |
| 20260901084106 | 79 | 174 | 2.0 | 4.0 | 0.00 | 0.00 | 0.00 | 74 | 1015.2 |
| 20260901083906 | 79 | 182 | 1.0 | 3.0 | 0.00 | 0.00 | 0.00 | 73 | 1015.2 |
| 20260901083807 | 79 | 187 | 1.0 | 4.0 | 0.00 | 0.00 | 0.00 | 73 | 1015.2 |
| 20260901083706 | 79 | 190 | 2.0 | 4.0 | 0.00 | 0.00 | 0.00 | 73 | 1015.2 |
| 20260901083607 | 79 | 192 | 2.0 | 4.0 | 0.00 | 0.00 | 0.00 | 73 | 1015.1 |
| 20260901083507 | 79 | 193 | 2.0 | 4.0 | 0.00 | 0.00 | 0.00 | 73 | 1015.2 |
| 20260901083306 | 79 | 199 | 2.0 | 5.0 | 0.00 | 0.00 | 0.00 | 73 | 1015.2 |
| 20260901082906 | 79 | 200 | 2.0 | 5.0 | 0.00 | 0.00 | 0.00 | 73 | 1015.1 |
| 20260901082806 | 79 | 199 | 2.0 | 5.0 | 0.00 | 0.00 | 0.00 | 73 | 1015.1 |
| 20260901082506 | 79 | 198 | 2.0 | 5.0 | 0.00 | 0.00 | 0.00 | 73 | 1015.1 |
| 20260901082406 | 79 | 198 | 2.0 | 5.0 | 0.00 | 0.00 | 0.00 | 74 | 1015.1 |
| 20260901082206 | 79 | 198 | 2.0 | 5.0 | 0.00 | 0.00 | 0.00 | 74 | 1015.1 |
| 20260901082106 | 79 | 197 | 2.0 | 5.0 | 0.00 | 0.00 | 0.00 | 73 | 1015.1 |
| 20260901082006 | 79 | 198 | 2.0 | 5.0 | 0.00 | 0.00 | 0.00 | 74 | 1015.1 |
| 20260901081906 | 79 | 197 | 1.0 | 4.0 | 0.00 | 0.00 | 0.00 | 74 | 1015.1 |
| 20260901081707 | 79 | 194 | 1.0 | 4.0 | 0.00 | 0.00 | 0.00 | 74 | 1015.1 |
| 20260901081606 | 79 | 193 | 1.0 | 3.0 | 0.00 | 0.00 | 0.00 | 74 | 1015.1 |
| 20260901081506 | 79 | 192 | 1.0 | 3.0 | 0.00 | 0.00 | 0.00 | 74 | 1015.1 |
| 20260901081406 | 79 | 190 | 1.0 | 3.0 | 0.00 | 0.00 | 0.00 | 73 | 1015.1 |
| 20260901081306 | 79 | 188 | 2.0 | 3.0 | 0.00 | 0.00 | 0.00 | 73 | 1015.1 |
| 20260901081207 | 79 | 186 | 2.0 | 3.0 | 0.00 | 0.00 | 0.00 | 73 | 1015.2 |
| 20260901081106 | 79 | 182 | 2.0 | 3.0 | 0.00 | 0.00 | 0.00 | 73 | 1015.1 |
| 20260901081007 | 79 | 179 | 2.0 | 3.0 | 0.00 | 0.00 | 0.00 | 73 | 1015.2 |
| 20260901080906 | 79 | 175 | 2.0 | 3.0 | 0.00 | 0.00 | 0.00 | 73 | 1015.2 |
| 20260901080806 | 79 | 171 | 2.0 | 3.0 | 0.00 | 0.00 | 0.00 | 73 | 1015.2 |
| 20260901080706 | 79 | 166 | 2.0 | 3.0 | 0.00 | 0.00 | 0.00 | 73 | 1015.2 |
| 20260901080606 | 79 | 163 | 2.0 | 3.0 | 0.00 | 0.00 | 0.00 | 73 | 1015.2 |
| 20260901080506 | 79 | 162 | 2.0 | 4.0 | 0.00 | 0.00 | 0.00 | 73 | 1015.2 |
| 20260901080406 | 79 | 161 | 2.0 | 4.0 | 0.00 | 0.00 | 0.00 | 73 | 1015.2 |
| 20260901080206 | 79 | 158 | 2.0 | 4.0 | 0.00 | 0.00 | 0.00 | 73 | 1015.2 |
| 20260901080007 | 80 | 159 | 2.0 | 4.0 | 0.00 | 0.00 | 0.00 | 73 | 1015.2 |
| 20260901075806 | 80 | 162 | 2.0 | 4.0 | 0.00 | 0.00 | 0.00 | 73 | 1015.3 |
| 20260901075606 | 80 | 167 | 2.0 | 4.0 | 0.00 | 0.00 | 0.00 | 73 | 1015.2 |
| 20260901075506 | 80 | 173 | 2.0 | 4.0 | 0.00 | 0.00 | 0.00 | 73 | 1015.2 |
| 20260901075307 | 80 | 185 | 2.0 | 4.0 | 0.00 | 0.00 | 0.00 | 73 | 1015.1 |
| 20260901075206 | 80 | 188 | 2.0 | 4.0 | 0.00 | 0.00 | 0.00 | 73 | 1015.2 |
| 20260901075106 | 80 | 192 | 2.0 | 4.0 | 0.00 | 0.00 | 0.00 | 72 | 1015.2 |
| 20260901075006 | 80 | 189 | 2.0 | 4.0 | 0.00 | 0.00 | 0.00 | 72 | 1015.1 |
| 20260901074906 | 80 | 188 | 2.0 | 4.0 | 0.00 | 0.00 | 0.00 | 72 | 1015.2 |
| 20260901074807 | 80 | 186 | 2.0 | 4.0 | 0.00 | 0.00 | 0.00 | 72 | 1015.2 |
| 20260901074706 | 80 | 185 | 2.0 | 4.0 | 0.00 | 0.00 | 0.00 | 72 | 1015.2 |
| 20260901074606 | 80 | 183 | 2.0 | 4.0 | 0.00 | 0.00 | 0.00 | 72 | 1015.2 |
| 20260901074507 | 80 | 179 | 2.0 | 4.0 | 0.00 | 0.00 | 0.00 | 72 | 1015.2 |
| 20260901074406 | 80 | 176 | 2.0 | 4.0 | 0.00 | 0.00 | 0.00 | 72 | 1015.2 |
| 20260901074306 | 80 | 175 | 2.0 | 5.0 | 0.00 | 0.00 | 0.00 | 72 | 1015.2 |
| 20260901074206 | 80 | 178 | 2.0 | 5.0 | 0.00 | 0.00 | 0.00 | 72 | 1015.2 |
| 20260901074107 | 80 | 179 | 2.0 | 5.0 | 0.00 | 0.00 | 0.00 | 72 | 1015.1 |
| 20260901074006 | 80 | 184 | 2.0 | 5.0 | 0.00 | 0.00 | 0.00 | 72 | 1015.2 |
| 20260901073906 | 80 | 186 | 2.0 | 5.0 | 0.00 | 0.00 | 0.00 | 72 | 1015.2 |
| 20260901073707 | 80 | 188 | 2.0 | 5.0 | 0.00 | 0.00 | 0.00 | 72 | 1015.1 |
| 20260901073507 | 80 | 189 | 2.0 | 5.0 | 0.00 | 0.00 | 0.00 | 72 | 1015.1 |
| 20260901073406 | 80 | 189 | 2.0 | 5.0 | 0.00 | 0.00 | 0.00 | 72 | 1015.1 |
| 20260901073306 | 80 | 186 | 2.0 | 6.0 | 0.00 | 0.00 | 0.00 | 72 | 1015.1 |
| 20260901073206 | 80 | 183 | 2.0 | 6.0 | 0.00 | 0.00 | 0.00 | 72 | 1015.2 |
| 20260901073106 | 80 | 179 | 3.0 | 6.0 | 0.00 | 0.00 | 0.00 | 72 | 1015.2 |
| 20260901073006 | 80 | 177 | 2.0 | 6.0 | 0.00 | 0.00 | 0.00 | 72 | 1015.2 |
| 20260901072907 | 80 | 177 | 3.0 | 6.0 | 0.00 | 0.00 | 0.00 | 72 | 1015.2 |
| 20260901072806 | 80 | 177 | 2.0 | 6.0 | 0.00 | 0.00 | 0.00 | 72 | 1015.2 |
| 20260901072706 | 80 | 176 | 3.0 | 6.0 | 0.00 | 0.00 | 0.00 | 71 | 1015.2 |
| 20260901072606 | 80 | 175 | 3.0 | 6.0 | 0.00 | 0.00 | 0.00 | 71 | 1015.2 |
| 20260901072506 | 80 | 176 | 3.0 | 7.0 | 0.00 | 0.00 | 0.00 | 71 | 1015.2 |
| 20260901072406 | 80 | 175 | 3.0 | 7.0 | 0.00 | 0.00 | 0.00 | 71 | 1015.2 |
| 20260901072309 | 80 | 174 | 3.0 | 7.0 | 0.00 | 0.00 | 0.00 | 71 | 1015.2 |
| 20260901072206 | 80 | 174 | 3.0 | 8.0 | 0.00 | 0.00 | 0.00 | 71 | 1015.2 |
| 20260901072106 | 80 | 173 | 3.0 | 8.0 | 0.00 | 0.00 | 0.00 | 71 | 1015.2 |
| 20260901072006 | 80 | 173 | 4.0 | 8.0 | 0.00 | 0.00 | 0.00 | 71 | 1015.2 |
| 20260901071906 | 80 | 171 | 4.0 | 8.0 | 0.00 | 0.00 | 0.00 | 71 | 1015.2 |
| 20260901071806 | 80 | 170 | 4.0 | 8.0 | 0.00 | 0.00 | 0.00 | 71 | 1015.2 |
| 20260901071706 | 80 | 169 | 4.0 | 8.0 | 0.00 | 0.00 | 0.00 | 71 | 1015.2 |
| 20260901071606 | 80 | 169 | 4.0 | 8.0 | 0.00 | 0.00 | 0.00 | 71 | 1015.2 |
| 20260901071507 | 80 | 167 | 4.0 | 8.0 | 0.00 | 0.00 | 0.00 | 71 | 1015.2 |
| 20260901071406 | 80 | 165 | 4.0 | 8.0 | 0.00 | 0.00 | 0.00 | 71 | 1015.2 |
| 20260901071306 | 80 | 165 | 4.0 | 8.0 | 0.00 | 0.00 | 0.00 | 71 | 1015.2 |
| 20260901071206 | 80 | 162 | 3.0 | 7.0 | 0.00 | 0.00 | 0.00 | 71 | 1015.3 |
| 20260901071106 | 80 | 162 | 3.0 | 7.0 | 0.00 | 0.00 | 0.00 | 71 | 1015.2 |
| 20260901071006 | 80 | 160 | 3.0 | 7.0 | 0.00 | 0.00 | 0.00 | 71 | 1015.2 |
| 20260901070906 | 80 | 160 | 3.0 | 7.0 | 0.00 | 0.00 | 0.00 | 71 | 1015.2 |
| 20260901070806 | 80 | 160 | 3.0 | 7.0 | 0.00 | 0.00 | 0.00 | 71 | 1015.3 |
| 20260901070706 | 80 | 158 | 3.0 | 7.0 | 0.00 | 0.00 | 0.00 | 71 | 1015.2 |
| 20260901070606 | 80 | 158 | 3.0 | 7.0 | 0.00 | 0.00 | 0.00 | 71 | 1015.3 |
| 20260901070507 | 80 | 158 | 3.0 | 7.0 | 0.00 | 0.00 | 0.00 | 71 | 1015.2 |
| 20260901070406 | 80 | 159 | 2.0 | 7.0 | 0.00 | 0.00 | 0.00 | 71 | 1015.2 |
| 20260901070206 | 80 | 157 | 2.0 | 6.0 | 0.00 | 0.00 | 0.00 | 71 | 1015.3 |
| 20260901070106 | 80 | 155 | 2.0 | 6.0 | 0.00 | 0.00 | 0.00 | 71 | 1015.2 |
| 20260901070006 | 80 | 155 | 2.0 | 6.0 | 0.00 | 0.00 | 0.00 | 71 | 1015.2 |
| 20260901065806 | 80 | 152 | 2.0 | 6.0 | 0.00 | 0.00 | 0.00 | 71 | 1015.2 |
| 20260901065706 | 80 | 152 | 2.0 | 6.0 | 0.00 | 0.00 | 0.00 | 70 | 1015.2 |
| 20260901065606 | 80 | 151 | 2.0 | 6.0 | 0.00 | 0.00 | 0.00 | 70 | 1015.2 |
| 20260901065506 | 80 | 150 | 2.0 | 6.0 | 0.00 | 0.00 | 0.00 | 70 | 1015.3 |
| 20260901065406 | 80 | 149 | 2.0 | 6.0 | 0.00 | 0.00 | 0.00 | 70 | 1015.3 |
| 20260901065307 | 80 | 152 | 2.0 | 6.0 | 0.00 | 0.00 | 0.00 | 70 | 1015.2 |
| 20260901065206 | 80 | 151 | 2.0 | 6.0 | 0.00 | 0.00 | 0.00 | 70 | 1015.3 |
| 20260901065006 | 81 | 150 | 2.0 | 6.0 | 0.00 | 0.00 | 0.00 | 70 | 1015.3 |
| 20260901064907 | 81 | 150 | 2.0 | 6.0 | 0.00 | 0.00 | 0.00 | 70 | 1015.3 |
| 20260901064806 | 81 | 149 | 2.0 | 6.0 | 0.00 | 0.00 | 0.00 | 70 | 1015.3 |
| 20260901064706 | 81 | 149 | 2.0 | 6.0 | 0.00 | 0.00 | 0.00 | 70 | 1015.3 |
| 20260901064606 | 80 | 150 | 2.0 | 6.0 | 0.00 | 0.00 | 0.00 | 70 | 1015.3 |
| 20260901064506 | 81 | 149 | 1.0 | 6.0 | 0.00 | 0.00 | 0.00 | 70 | 1015.2 |
| 20260901064306 | 81 | 141 | 1.0 | 6.0 | 0.00 | 0.00 | 0.00 | 70 | 1015.2 |
| 20260901064207 | 81 | 139 | 1.0 | 6.0 | 0.00 | 0.00 | 0.00 | 70 | 1015.2 |
| 20260901064106 | 81 | 135 | 1.0 | 3.0 | 0.00 | 0.00 | 0.00 | 70 | 1015.1 |
| 20260901064006 | 81 | 135 | 1.0 | 3.0 | 0.00 | 0.00 | 0.00 | 70 | 1015.1 |
| 20260901063906 | 81 | 135 | 1.0 | 4.0 | 0.00 | 0.00 | 0.00 | 70 | 1015.1 |
| 20260901063806 | 81 | 136 | 1.0 | 4.0 | 0.00 | 0.00 | 0.00 | 69 | 1015.1 |
| 20260901063706 | 81 | 138 | 1.0 | 4.0 | 0.00 | 0.00 | 0.00 | 69 | 1015.2 |
| 20260901063606 | 81 | 139 | 2.0 | 4.0 | 0.00 | 0.00 | 0.00 | 69 | 1015.2 |
| 20260901063506 | 81 | 141 | 2.0 | 4.0 | 0.00 | 0.00 | 0.00 | 69 | 1015.2 |
| 20260901063406 | 81 | 142 | 2.0 | 4.0 | 0.00 | 0.00 | 0.00 | 69 | 1015.2 |
| 20260901063306 | 81 | 144 | 2.0 | 4.0 | 0.00 | 0.00 | 0.00 | 69 | 1015.2 |
| 20260901063205 | 81 | 146 | 2.0 | 4.0 | 0.00 | 0.00 | 0.00 | 69 | 1015.3 |
| 20260901063106 | 81 | 148 | 2.0 | 4.0 | 0.00 | 0.00 | 0.00 | 69 | 1015.2 |
| 20260901063006 | 81 | 150 | 2.0 | 4.0 | 0.00 | 0.00 | 0.00 | 68 | 1015.2 |
| 20260901062906 | 81 | 152 | 2.0 | 4.0 | 0.00 | 0.00 | 0.00 | 68 | 1015.2 |
| 20260901062806 | 81 | 156 | 2.0 | 4.0 | 0.00 | 0.00 | 0.00 | 68 | 1015.2 |
| 20260901062706 | 81 | 158 | 2.0 | 4.0 | 0.00 | 0.00 | 0.00 | 68 | 1015.2 |
| 20260901062606 | 81 | 158 | 2.0 | 4.0 | 0.00 | 0.00 | 0.00 | 68 | 1015.1 |
| 20260901062507 | 81 | 159 | 2.0 | 4.0 | 0.00 | 0.00 | 0.00 | 68 | 1015.1 |
| 20260901062406 | 82 | 160 | 2.0 | 4.0 | 0.00 | 0.00 | 0.00 | 68 | 1015.1 |
| 20260901062310 | 82 | 160 | 2.0 | 4.0 | 0.00 | 0.00 | 0.00 | 68 | 1015.1 |
| 20260901062206 | 82 | 160 | 2.0 | 4.0 | 0.00 | 0.00 | 0.00 | 68 | 1015.0 |
| 20260901062106 | 82 | 158 | 2.0 | 4.0 | 0.00 | 0.00 | 0.00 | 68 | 1015.0 |
| 20260901062006 | 82 | 160 | 3.0 | 4.0 | 0.00 | 0.00 | 0.00 | 68 | 1015.0 |
| 20260901061906 | 82 | 160 | 3.0 | 4.0 | 0.00 | 0.00 | 0.00 | 67 | 1015.0 |
| 20260901061806 | 82 | 158 | 3.0 | 4.0 | 0.00 | 0.00 | 0.00 | 67 | 1015.0 |
| 20260901061707 | 82 | 157 | 3.0 | 4.0 | 0.00 | 0.00 | 0.00 | 67 | 1015.0 |
| 20260901061606 | 82 | 158 | 3.0 | 6.0 | 0.00 | 0.00 | 0.00 | 67 | 1015.0 |
| 20260901061506 | 82 | 157 | 3.0 | 6.0 | 0.00 | 0.00 | 0.00 | 67 | 1015.0 |
| 20260901061406 | 82 | 156 | 3.0 | 6.0 | 0.00 | 0.00 | 0.00 | 67 | 1015.0 |
| 20260901061306 | 82 | 155 | 3.0 | 6.0 | 0.00 | 0.00 | 0.00 | 67 | 1014.9 |
| 20260901061106 | 82 | 155 | 3.0 | 6.0 | 0.00 | 0.00 | 0.00 | 67 | 1014.9 |
| 20260901061006 | 82 | 155 | 3.0 | 6.0 | 0.00 | 0.00 | 0.00 | 67 | 1014.9 |
| 20260901060906 | 82 | 155 | 3.0 | 6.0 | 0.00 | 0.00 | 0.00 | 67 | 1015.0 |
| 20260901060805 | 82 | 158 | 3.0 | 7.0 | 0.00 | 0.00 | 0.00 | 67 | 1014.9 |
| 20260901060706 | 82 | 158 | 3.0 | 7.0 | 0.00 | 0.00 | 0.00 | 66 | 1015.0 |
| 20260901060606 | 82 | 159 | 3.0 | 7.0 | 0.00 | 0.00 | 0.00 | 66 | 1015.0 |
| 20260901060506 | 82 | 160 | 3.0 | 7.0 | 0.00 | 0.00 | 0.00 | 66 | 1015.0 |
| 20260901060406 | 82 | 162 | 3.0 | 7.0 | 0.00 | 0.00 | 0.00 | 66 | 1015.0 |
| 20260901060306 | 82 | 164 | 3.0 | 7.0 | 0.00 | 0.00 | 0.00 | 66 | 1014.9 |
| 20260901060206 | 82 | 166 | 3.0 | 7.0 | 0.00 | 0.00 | 0.00 | 66 | 1014.9 |
| 20260901060007 | 82 | 165 | 3.0 | 7.0 | 0.00 | 0.00 | 0.00 | 66 | 1014.9 |
| 20260901055906 | 82 | 165 | 4.0 | 7.0 | 0.00 | 0.00 | 0.00 | 66 | 1014.9 |
| 20260901055805 | 82 | 164 | 3.0 | 7.0 | 0.00 | 0.00 | 0.00 | 66 | 1014.9 |
| 20260901055706 | 82 | 165 | 3.0 | 7.0 | 0.00 | 0.00 | 0.00 | 66 | 1014.9 |
| 20260901055606 | 82 | 167 | 4.0 | 7.0 | 0.00 | 0.00 | 0.00 | 66 | 1014.9 |
| 20260901055507 | 83 | 168 | 4.0 | 7.0 | 0.00 | 0.00 | 0.00 | 66 | 1014.8 |
| 20260901055406 | 82 | 168 | 4.0 | 7.0 | 0.00 | 0.00 | 0.00 | 66 | 1014.9 |
| 20260901055306 | 83 | 169 | 4.0 | 7.0 | 0.00 | 0.00 | 0.00 | 66 | 1014.8 |
| 20260901055206 | 83 | 169 | 4.0 | 7.0 | 0.00 | 0.00 | 0.00 | 65 | 1014.9 |
| 20260901055006 | 83 | 173 | 4.0 | 7.0 | 0.00 | 0.00 | 0.00 | 65 | 1014.9 |
| 20260901054906 | 83 | 173 | 4.0 | 7.0 | 0.00 | 0.00 | 0.00 | 65 | 1014.9 |
| 20260901054806 | 83 | 174 | 4.0 | 7.0 | 0.00 | 0.00 | 0.00 | 65 | 1014.8 |
| 20260901054706 | 83 | 175 | 4.0 | 7.0 | 0.00 | 0.00 | 0.00 | 65 | 1014.8 |
| 20260901054606 | 83 | 175 | 4.0 | 7.0 | 0.00 | 0.00 | 0.00 | 65 | 1014.9 |
| 20260901054505 | 83 | 174 | 4.0 | 8.0 | 0.00 | 0.00 | 0.00 | 65 | 1014.9 |
| 20260901054406 | 83 | 173 | 4.0 | 8.0 | 0.00 | 0.00 | 0.00 | 65 | 1014.8 |
| 20260901054307 | 83 | 171 | 4.0 | 8.0 | 0.00 | 0.00 | 0.00 | 65 | 1014.8 |
| 20260901054206 | 83 | 172 | 4.0 | 8.0 | 0.00 | 0.00 | 0.00 | 65 | 1014.8 |
| 20260901054106 | 83 | 169 | 4.0 | 9.0 | 0.00 | 0.00 | 0.00 | 65 | 1014.8 |
| 20260901054005 | 83 | 169 | 4.0 | 9.0 | 0.00 | 0.00 | 0.00 | 65 | 1014.7 |
| 20260901053906 | 83 | 168 | 4.0 | 9.0 | 0.00 | 0.00 | 0.00 | 65 | 1014.7 |
| 20260901053706 | 83 | 164 | 4.0 | 9.0 | 0.00 | 0.00 | 0.00 | 65 | 1014.7 |
| 20260901053305 | 83 | 160 | 4.0 | 9.0 | 0.00 | 0.00 | 0.00 | 64 | 1014.7 |
| 20260901053206 | 83 | 158 | 4.0 | 9.0 | 0.00 | 0.00 | 0.00 | 64 | 1014.7 |
| 20260901053108 | 83 | 158 | 4.0 | 9.0 | 0.00 | 0.00 | 0.00 | 64 | 1014.7 |
| 20260901053006 | 83 | 158 | 4.0 | 9.0 | 0.00 | 0.00 | 0.00 | 64 | 1014.7 |
| 20260901052906 | 83 | 159 | 4.0 | 9.0 | 0.00 | 0.00 | 0.00 | 64 | 1014.7 |
| 20260901052806 | 83 | 161 | 4.0 | 9.0 | 0.00 | 0.00 | 0.00 | 64 | 1014.7 |
| 20260901052706 | 83 | 162 | 5.0 | 9.0 | 0.00 | 0.00 | 0.00 | 64 | 1014.7 |
| 20260901052606 | 83 | 162 | 5.0 | 9.0 | 0.00 | 0.00 | 0.00 | 64 | 1014.7 |
| 20260901052506 | 83 | 161 | 5.0 | 11.0 | 0.00 | 0.00 | 0.00 | 64 | 1014.7 |
| 20260901052405 | 83 | 161 | 5.0 | 11.0 | 0.00 | 0.00 | 0.00 | 64 | 1014.7 |
| 20260901052205 | 83 | 161 | 6.0 | 11.0 | 0.00 | 0.00 | 0.00 | 64 | 1014.8 |
| 20260901052106 | 83 | 161 | 6.0 | 11.0 | 0.00 | 0.00 | 0.00 | 63 | 1014.7 |
| 20260901052005 | 83 | 161 | 6.0 | 11.0 | 0.00 | 0.00 | 0.00 | 63 | 1014.7 |
| 20260901051606 | 83 | 162 | 5.0 | 11.0 | 0.00 | 0.00 | 0.00 | 63 | 1014.7 |
| 20260901051506 | 83 | 163 | 5.0 | 9.0 | 0.00 | 0.00 | 0.00 | 63 | 1014.6 |
| 20260901051406 | 83 | 163 | 5.0 | 9.0 | 0.00 | 0.00 | 0.00 | 63 | 1014.7 |
| 20260901051306 | 83 | 163 | 5.0 | 9.0 | 0.00 | 0.00 | 0.00 | 63 | 1014.7 |
| 20260901051206 | 83 | 164 | 5.0 | 9.0 | 0.00 | 0.00 | 0.00 | 63 | 1014.6 |
| 20260901051106 | 83 | 165 | 6.0 | 9.0 | 0.00 | 0.00 | 0.00 | 62 | 1014.6 |
| 20260901051006 | 83 | 164 | 6.0 | 9.0 | 0.00 | 0.00 | 0.00 | 62 | 1014.6 |
| 20260901050906 | 83 | 164 | 5.0 | 9.0 | 0.00 | 0.00 | 0.00 | 62 | 1014.6 |
| 20260901050806 | 84 | 163 | 5.0 | 9.0 | 0.00 | 0.00 | 0.00 | 62 | 1014.6 |
| 20260901050706 | 84 | 164 | 5.0 | 9.0 | 0.00 | 0.00 | 0.00 | 62 | 1014.6 |
| 20260901050606 | 84 | 164 | 5.0 | 9.0 | 0.00 | 0.00 | 0.00 | 62 | 1014.6 |
| 20260901050507 | 84 | 163 | 5.0 | 9.0 | 0.00 | 0.00 | 0.00 | 62 | 1014.5 |
| 20260901050406 | 84 | 164 | 5.0 | 9.0 | 0.00 | 0.00 | 0.00 | 62 | 1014.5 |
| 20260901050306 | 84 | 167 | 6.0 | 10.0 | 0.00 | 0.00 | 0.00 | 61 | 1014.5 |
| 20260901050205 | 84 | 167 | 6.0 | 10.0 | 0.00 | 0.00 | 0.00 | 61 | 1014.5 |
| 20260901050006 | 84 | 168 | 6.0 | 11.0 | 0.00 | 0.00 | 0.00 | 61 | 1014.6 |
| 20260901045906 | 84 | 167 | 7.0 | 12.0 | 0.00 | 0.00 | 0.00 | 61 | 1014.5 |
| 20260901045706 | 84 | 168 | 7.0 | 12.0 | 0.00 | 0.00 | 0.00 | 61 | 1014.5 |
| 20260901045605 | 84 | 167 | 7.0 | 12.0 | 0.00 | 0.00 | 0.00 | 61 | 1014.5 |
| 20260901045405 | 84 | 168 | 6.0 | 12.0 | 0.00 | 0.00 | 0.00 | 60 | 1014.5 |
| 20260901045307 | 84 | 166 | 6.0 | 12.0 | 0.00 | 0.00 | 0.00 | 60 | 1014.5 |
| 20260901045106 | 84 | 167 | 6.0 | 12.0 | 0.00 | 0.00 | 0.00 | 60 | 1014.5 |
| 20260901044906 | 84 | 169 | 5.0 | 11.0 | 0.00 | 0.00 | 0.00 | 60 | 1014.4 |
| 20260901044607 | 83 | 167 | 5.0 | 11.0 | 0.00 | 0.00 | 0.00 | 59 | 1014.4 |
| 20260901044507 | 83 | 166 | 4.0 | 9.0 | 0.00 | 0.00 | 0.00 | 59 | 1014.4 |
| 20260901044406 | 83 | 165 | 4.0 | 9.0 | 0.00 | 0.00 | 0.00 | 59 | 1014.4 |
| 20260901044305 | 83 | 164 | 4.0 | 9.0 | 0.00 | 0.00 | 0.00 | 59 | 1014.4 |